VOZ15 OMDB-YSSY

Flight info

Callsign VOZ15
Flight time 13h 16m
Altitude 29000
Route ANVIX L223 TARDI N629 GIDAN P570 EMURU M300 NITIX/N0507F310 M300 VASTU P895 BIKOK M641 ADLIG/N0504F330 M641 DOGAR DCT DAOVO DCT PIBED DCT 09S094E 10S095E DCT POROR DCT 19S106E 21S109E/N0494F350 DCT ATLOD DCT ISDOR DCT LST DCT FRT DCT ENTRE DCT CDU J149 WHA J21 KABEK/N0481F370 J21 BORLI H205 CULIN Y59 RIVET
Aircraft B77W/H-SDE1E2E3FGHIJ2J3J4J5M1RWXY/LB1D1

Departure

Time 2026-04-26 09:11
Airport Dubai International Airport (OMDB)

Arrival

Time 2026-04-26 22:28
Airport Sydney Kingsford Smith International Airport (YSSY)
Time Latitude Longitude Altitude Speed Heading
2026-04-26 07:11 25.24772 55.36503 45 ft 0 kts 211°
2026-04-26 08:50 25.24773 55.36503 45 ft 1 kts 211°
2026-04-26 08:51 25.24799 55.36520 45 ft 2 kts 211°
2026-04-26 08:51 25.24812 55.36528 45 ft 2 kts 212°
2026-04-26 08:51 25.24823 55.36539 45 ft 2 kts 233°
2026-04-26 08:52 25.24830 55.36553 45 ft 2 kts 252°
2026-04-26 08:52 25.24834 55.36570 45 ft 2 kts 269°
2026-04-26 08:52 25.24832 55.36586 45 ft 2 kts 287°
2026-04-26 08:52 25.24828 55.36598 45 ft 0 kts 301°
2026-04-26 08:53 25.24825 55.36602 45 ft 0 kts 302°
2026-04-26 08:53 25.24826 55.36602 45 ft 0 kts 302°
2026-04-26 08:57 25.24832 55.36591 45 ft 3 kts 302°
2026-04-26 08:58 25.24849 55.36559 45 ft 6 kts 302°
2026-04-26 08:58 25.24876 55.36508 45 ft 9 kts 300°
2026-04-26 08:58 25.24920 55.36425 45 ft 15 kts 300°
2026-04-26 08:58 25.24978 55.36322 45 ft 14 kts 303°
2026-04-26 08:59 25.25028 55.36234 44 ft 11 kts 301°
2026-04-26 08:59 25.25067 55.36162 45 ft 10 kts 301°
2026-04-26 08:59 25.25101 55.36101 44 ft 8 kts 301°
2026-04-26 08:59 25.25133 55.36044 44 ft 9 kts 301°
2026-04-26 09:00 25.25168 55.35979 44 ft 10 kts 301°
2026-04-26 09:00 25.25207 55.35911 44 ft 11 kts 301°
2026-04-26 09:00 25.25246 55.35839 44 ft 9 kts 301°
2026-04-26 09:00 25.25277 55.35783 44 ft 8 kts 301°
2026-04-26 09:01 25.25309 55.35726 44 ft 9 kts 301°
2026-04-26 09:01 25.25348 55.35657 44 ft 12 kts 301°
2026-04-26 09:01 25.25405 55.35553 44 ft 17 kts 301°
2026-04-26 09:01 25.25470 55.35435 44 ft 18 kts 301°
2026-04-26 09:02 25.25538 55.35314 44 ft 19 kts 301°
2026-04-26 09:02 25.25603 55.35194 44 ft 14 kts 300°
2026-04-26 09:02 25.25649 55.35156 44 ft 0 kts 359°
2026-04-26 09:03 25.25659 55.35157 44 ft 3 kts
2026-04-26 09:03 25.25686 55.35166 44 ft 3 kts 25°
2026-04-26 09:03 25.25703 55.35177 44 ft 2 kts 30°
2026-04-26 09:03 25.25733 55.35196 44 ft 7 kts 30°
2026-04-26 09:04 25.25811 55.35247 44 ft 17 kts 32°
2026-04-26 09:04 25.25907 55.35313 44 ft 15 kts 31°
2026-04-26 09:04 25.25986 55.35400 44 ft 18 kts 64°
2026-04-26 09:04 25.25973 55.35558 44 ft 24 kts 120°
2026-04-26 09:05 25.25880 55.35725 44 ft 24 kts 121°
2026-04-26 09:05 25.25795 55.35878 44 ft 23 kts 121°
2026-04-26 09:05 25.25711 55.36028 44 ft 21 kts 122°
2026-04-26 09:05 25.25636 55.36164 44 ft 20 kts 121°
2026-04-26 09:06 25.25559 55.36303 44 ft 21 kts 122°
2026-04-26 09:06 25.25475 55.36453 45 ft 24 kts 121°
2026-04-26 09:06 25.25382 55.36622 45 ft 27 kts 122°
2026-04-26 09:06 25.25286 55.36795 45 ft 24 kts 122°
2026-04-26 09:07 25.25198 55.36952 45 ft 23 kts 121°
2026-04-26 09:07 25.25113 55.37105 45 ft 23 kts 121°
2026-04-26 09:07 25.25026 55.37262 45 ft 23 kts 121°
2026-04-26 09:07 25.24941 55.37417 45 ft 23 kts 122°
2026-04-26 09:08 25.24855 55.37572 45 ft 23 kts 121°
2026-04-26 09:08 25.24768 55.37729 45 ft 23 kts 121°
2026-04-26 09:08 25.24685 55.37879 45 ft 20 kts 121°
2026-04-26 09:08 25.24616 55.38003 45 ft 17 kts 121°
2026-04-26 09:09 25.24566 55.38103 45 ft 12 kts 96°
2026-04-26 09:09 25.24607 55.38169 45 ft 9 kts 38°
2026-04-26 09:09 25.24658 55.38205 45 ft 7 kts 27°
2026-04-26 09:09 25.24699 55.38200 45 ft 5 kts 326°
2026-04-26 09:10 25.24727 55.38167 45 ft 5 kts 303°
2026-04-26 09:10 25.24732 55.38158 45 ft 0 kts 301°
2026-04-26 09:10 25.24737 55.38150 45 ft 9 kts 302°
2026-04-26 09:10 25.24888 55.37879 45 ft 73 kts 301°
2026-04-26 09:11 25.25264 55.37200 45 ft 132 kts 301°
2026-04-26 09:11 25.25838 55.36163 48 ft 183 kts 301°
2026-04-26 09:11 25.26551 55.34878 396 ft 202 kts 302°
2026-04-26 09:11 25.27278 55.33550 1147 ft 209 kts 301°
2026-04-26 09:12 25.28009 55.32217 1862 ft 197 kts 302°
2026-04-26 09:12 25.28714 55.30912 2237 ft 199 kts 293°
2026-04-26 09:12 25.29058 55.29440 2703 ft 197 kts 275°
2026-04-26 09:12 25.28935 55.27935 3078 ft 200 kts 256°
2026-04-26 09:13 25.28373 55.26508 3466 ft 203 kts 244°
2026-04-26 09:13 25.27730 55.25140 3844 ft 203 kts 246°
2026-04-26 09:13 25.27101 55.23698 3981 ft 210 kts 248°
2026-04-26 09:13 25.26492 55.22259 4416 ft 205 kts 248°
2026-04-26 09:14 25.25887 55.20834 4748 ft 208 kts 248°
2026-04-26 09:14 25.25247 55.19320 4815 ft 226 kts 247°
2026-04-26 09:14 25.24343 55.17843 4974 ft 241 kts 224°
2026-04-26 09:14 25.22860 55.16904 5295 ft 251 kts 197°
2026-04-26 09:15 25.21096 55.16739 5522 ft 265 kts 178°
2026-04-26 09:15 25.19248 55.17222 5835 ft 277 kts 152°
2026-04-26 09:15 25.17717 55.18542 6222 ft 284 kts 128°
2026-04-26 09:15 25.16696 55.20475 6443 ft 297 kts 114°
2026-04-26 09:16 25.15813 55.22552 6871 ft 302 kts 116°
2026-04-26 09:16 25.14857 55.24657 7188 ft 312 kts 117°
2026-04-26 09:16 25.13848 55.26790 7776 ft 314 kts 117°
2026-04-26 09:16 25.12841 55.28889 8590 ft 311 kts 117°
2026-04-26 09:17 25.11828 55.30994 9412 ft 308 kts 117°
2026-04-26 09:17 25.10836 55.33054 10233 ft 307 kts 117°
2026-04-26 09:17 25.09898 55.35159 10794 ft 306 kts 114°
2026-04-26 09:17 25.09022 55.37354 10984 ft 314 kts 114°
2026-04-26 09:18 25.08126 55.39580 11195 ft 321 kts 114°
2026-04-26 09:18 25.07210 55.41820 11424 ft 326 kts 115°
2026-04-26 09:18 25.06292 55.44161 11575 ft 340 kts 113°
2026-04-26 09:18 25.05358 55.46616 11730 ft 355 kts 113°
2026-04-26 09:19 25.04373 55.49189 11903 ft 369 kts 114°
2026-04-26 09:19 25.03363 55.51816 12122 ft 383 kts 114°
2026-04-26 09:19 25.02290 55.54590 12289 ft 397 kts 115°
2026-04-26 09:19 25.00963 55.57305 12464 ft 409 kts 121°
2026-04-26 09:20 24.99501 55.60016 12921 ft 413 kts 121°
2026-04-26 09:20 24.98026 55.62742 13486 ft 414 kts 122°
2026-04-26 09:20 24.96557 55.65456 13971 ft 417 kts 122°
2026-04-26 09:20 24.95062 55.68219 14380 ft 422 kts 122°
2026-04-26 09:21 24.93464 55.70947 14818 ft 424 kts 127°
2026-04-26 09:21 24.91741 55.73562 15312 ft 427 kts 128°
2026-04-26 09:21 24.89978 55.76214 15767 ft 430 kts 128°
2026-04-26 09:21 24.88202 55.78887 16193 ft 433 kts 128°
2026-04-26 09:22 24.86421 55.81569 16682 ft 436 kts 128°
2026-04-26 09:22 24.84621 55.84278 17120 ft 440 kts 128°
2026-04-26 09:22 24.82811 55.86983 17516 ft 443 kts 128°
2026-04-26 09:22 24.80961 55.89711 18012 ft 445 kts 128°
2026-04-26 09:23 24.79104 55.92442 18445 ft 448 kts 130°
2026-04-26 09:23 24.76993 55.95018 18818 ft 450 kts 138°
2026-04-26 09:23 24.74719 55.97383 19202 ft 453 kts 139°
2026-04-26 09:23 24.72410 55.99755 19632 ft 455 kts 139°
2026-04-26 09:24 24.70079 56.02147 20016 ft 459 kts 139°
2026-04-26 09:24 24.67767 56.04521 20363 ft 463 kts 139°
2026-04-26 09:24 24.65388 56.06968 20746 ft 466 kts 139°
2026-04-26 09:24 24.63035 56.09389 21145 ft 469 kts 139°
2026-04-26 09:25 24.60626 56.11867 21525 ft 472 kts 139°
2026-04-26 09:25 24.58231 56.14326 21875 ft 475 kts 139°
2026-04-26 09:25 24.55916 56.16992 22218 ft 481 kts 134°
2026-04-26 09:25 24.53752 56.19739 22581 ft 483 kts 133°
2026-04-26 09:26 24.51553 56.22548 22942 ft 486 kts 133°
2026-04-26 09:26 24.49351 56.25358 23333 ft 487 kts 133°
2026-04-26 09:26 24.47117 56.28207 23722 ft 488 kts 133°
2026-04-26 09:26 24.44927 56.30996 24078 ft 489 kts 133°
2026-04-26 09:27 24.42674 56.33861 24376 ft 492 kts 133°
2026-04-26 09:27 24.40433 56.36711 24647 ft 495 kts 133°
2026-04-26 09:27 24.38185 56.39566 24962 ft 497 kts 133°
2026-04-26 09:27 24.35925 56.42435 25295 ft 499 kts 133°
2026-04-26 09:28 24.33662 56.45305 25628 ft 500 kts 133°
2026-04-26 09:28 24.31383 56.48195 25942 ft 502 kts 133°
2026-04-26 09:28 24.29099 56.51100 26249 ft 505 kts 131°
2026-04-26 09:28 24.26995 56.54174 26598 ft 507 kts 127°
2026-04-26 09:29 24.24934 56.57343 26932 ft 509 kts 127°
2026-04-26 09:29 24.22880 56.60496 27222 ft 511 kts 127°
2026-04-26 09:29 24.20806 56.63661 27549 ft 512 kts 128°
2026-04-26 09:29 24.18723 56.66827 27874 ft 514 kts 128°
2026-04-26 09:30 24.16632 56.69995 28235 ft 514 kts 128°
2026-04-26 09:30 24.14529 56.73173 28648 ft 513 kts 128°
2026-04-26 09:30 24.12443 56.76318 28845 ft 514 kts 128°
2026-04-26 09:31 24.08264 56.82605 28854 ft 510 kts 128°
2026-04-26 09:31 24.04077 56.88889 28847 ft 509 kts 128°
2026-04-26 09:32 23.99904 56.95132 28840 ft 510 kts 128°
2026-04-26 09:32 23.95703 57.01406 28844 ft 510 kts 128°
2026-04-26 09:33 23.91530 57.07630 28851 ft 508 kts 128°
2026-04-26 09:33 23.87329 57.13886 28855 ft 509 kts 128°
2026-04-26 09:34 23.83123 57.20147 28860 ft 511 kts 128°
2026-04-26 09:34 23.78927 57.26383 28856 ft 511 kts 128°
2026-04-26 09:35 23.74711 57.32642 28858 ft 512 kts 128°
2026-04-26 09:35 23.70433 57.38895 28872 ft 512 kts 130°
2026-04-26 09:36 23.65992 57.44975 28868 ft 512 kts 130°
2026-04-26 09:36 23.61586 57.51002 28861 ft 512 kts 130°
2026-04-26 09:37 23.57134 57.57097 28875 ft 512 kts 130°
2026-04-26 09:37 23.52721 57.63140 28878 ft 513 kts 130°
2026-04-26 09:38 23.48278 57.69220 28884 ft 513 kts 130°
2026-04-26 09:38 23.43817 57.75314 28903 ft 514 kts 130°
2026-04-26 09:39 23.39354 57.81403 28933 ft 514 kts 130°
2026-04-26 09:39 23.34911 57.87459 28951 ft 515 kts 130°
2026-04-26 09:40 23.30431 57.93558 28966 ft 515 kts 130°
2026-04-26 09:40 23.25976 57.99618 28976 ft 515 kts 130°
2026-04-26 09:41 23.21691 58.05849 28992 ft 516 kts 125°
2026-04-26 09:41 23.17692 58.12285 29030 ft 515 kts 125°
2026-04-26 09:42 23.13641 58.18757 29034 ft 514 kts 125°
2026-04-26 09:42 23.09618 58.25148 29036 ft 514 kts 125°
2026-04-26 09:43 23.05594 58.31517 29044 ft 515 kts 125°
2026-04-26 09:43 23.01019 58.37454 29036 ft 513 kts 139°
2026-04-26 09:44 22.95168 58.41922 29042 ft 512 kts 149°
2026-04-26 09:44 22.89109 58.45954 29024 ft 511 kts 149°
2026-04-26 09:45 22.83063 58.49965 29007 ft 510 kts 149°
2026-04-26 09:45 22.77032 58.53959 28987 ft 509 kts 149°
2026-04-26 09:46 22.70962 58.57974 28971 ft 510 kts 149°
2026-04-26 09:46 22.64873 58.61997 28959 ft 510 kts 149°
2026-04-26 09:47 22.58820 58.65993 28950 ft 511 kts 149°
2026-04-26 09:47 22.52753 58.69994 28935 ft 511 kts 149°
2026-04-26 09:48 22.46654 58.74011 28921 ft 512 kts 149°
2026-04-26 09:48 22.40575 58.78011 28922 ft 511 kts 149°
2026-04-26 09:49 22.34462 58.82030 28917 ft 512 kts 149°
2026-04-26 09:49 22.28373 58.86028 28917 ft 512 kts 149°
2026-04-26 09:50 22.22624 58.90507 28906 ft 512 kts 136°
2026-04-26 09:50 22.17923 58.96287 28909 ft 513 kts 129°
2026-04-26 09:51 22.13359 59.02210 28902 ft 513 kts 129°
2026-04-26 09:51 22.08799 59.08120 28892 ft 513 kts 129°
2026-04-26 09:52 22.04263 59.13989 28884 ft 512 kts 129°
2026-04-26 09:52 21.97408 59.22845 28865 ft 511 kts 129°
2026-04-26 09:53 21.92872 59.28699 28856 ft 510 kts 129°
2026-04-26 09:53 21.88309 59.34578 28847 ft 510 kts 129°
2026-04-26 09:54 21.83779 59.40409 28843 ft 509 kts 130°
2026-04-26 09:54 21.79220 59.46271 28839 ft 510 kts 130°
2026-04-26 09:55 21.74683 59.52098 28833 ft 508 kts 129°
2026-04-26 09:55 21.70153 59.57910 28833 ft 508 kts 129°
2026-04-26 09:56 21.65630 59.63706 28834 ft 508 kts 129°
2026-04-26 09:56 21.61084 59.69527 28833 ft 507 kts 130°
2026-04-26 09:57 21.56538 59.75339 28836 ft 507 kts 129°
2026-04-26 09:57 21.52007 59.81112 28837 ft 507 kts 130°
2026-04-26 09:58 21.47469 59.86873 28837 ft 504 kts 130°
2026-04-26 09:58 21.42929 59.92632 28841 ft 504 kts 129°
2026-04-26 09:59 21.38422 59.98344 28838 ft 504 kts 129°
2026-04-26 09:59 21.33886 60.04087 28840 ft 502 kts 129°
2026-04-26 10:00 21.29366 60.09803 28841 ft 502 kts 129°
2026-04-26 10:00 21.24869 60.15484 28844 ft 500 kts 129°
2026-04-26 10:01 21.20375 60.21170 28845 ft 501 kts 129°
2026-04-26 10:01 21.15883 60.26856 28843 ft 501 kts 129°
2026-04-26 10:02 21.11377 60.32552 28846 ft 501 kts 129°
2026-04-26 10:02 21.06889 60.38219 28856 ft 499 kts 129°
2026-04-26 10:03 21.02397 60.43885 28866 ft 499 kts 129°
2026-04-26 10:03 20.97907 60.49543 28869 ft 499 kts 129°
2026-04-26 10:04 20.93411 60.55203 28868 ft 499 kts 129°
2026-04-26 10:04 20.88913 60.60860 28867 ft 499 kts 129°
2026-04-26 10:05 20.84420 60.66503 28868 ft 500 kts 129°
2026-04-26 10:05 20.79916 60.72155 28869 ft 499 kts 129°
2026-04-26 10:06 20.75429 60.77781 28869 ft 498 kts 129°
2026-04-26 10:06 20.70924 60.83424 28868 ft 498 kts 129°
2026-04-26 10:07 20.66433 60.89042 28868 ft 498 kts 129°
2026-04-26 10:07 20.61974 60.94673 28860 ft 498 kts 125°
2026-04-26 10:08 20.58163 61.00839 28868 ft 496 kts 121°
2026-04-26 10:08 20.54472 61.07038 28866 ft 497 kts 121°
2026-04-26 10:09 20.50758 61.13263 28861 ft 497 kts 120°
2026-04-26 10:09 20.47051 61.19466 28860 ft 497 kts 120°
2026-04-26 10:10 20.43341 61.25663 28858 ft 497 kts 120°
2026-04-26 10:10 20.39629 61.31856 28861 ft 496 kts 120°
2026-04-26 10:11 20.35893 61.38084 28867 ft 496 kts 120°
2026-04-26 10:11 20.32175 61.44273 28867 ft 497 kts 120°
2026-04-26 10:12 20.28446 61.50473 28867 ft 497 kts 120°
2026-04-26 10:12 20.24726 61.56652 28867 ft 497 kts 120°
2026-04-26 10:13 20.20992 61.62848 28864 ft 497 kts 120°
2026-04-26 10:13 20.17259 61.69036 28867 ft 497 kts 120°
2026-04-26 10:14 20.13532 61.75207 28870 ft 497 kts 120°
2026-04-26 10:14 20.09797 61.81384 28866 ft 497 kts 120°
2026-04-26 10:15 20.06057 61.87564 28871 ft 497 kts 120°
2026-04-26 10:15 20.02302 61.93761 28871 ft 497 kts 120°
2026-04-26 10:16 19.98562 61.99927 28870 ft 497 kts 120°
2026-04-26 10:16 19.94826 62.06080 28871 ft 496 kts 120°
2026-04-26 10:17 19.91086 62.12234 28873 ft 497 kts 120°
2026-04-26 10:17 19.87345 62.18383 28870 ft 496 kts 120°
2026-04-26 10:18 19.83598 62.24535 28865 ft 496 kts 120°
2026-04-26 10:18 19.79852 62.30681 28869 ft 497 kts 120°
2026-04-26 10:19 19.76107 62.36815 28864 ft 496 kts 120°
2026-04-26 10:19 19.72356 62.42957 28869 ft 496 kts 120°
2026-04-26 10:20 19.69216 62.48092 28867 ft 497 kts 120°
2026-04-26 10:20 19.64820 62.55273 28868 ft 497 kts 120°
2026-04-26 10:21 19.61069 62.61394 28866 ft 497 kts 120°
2026-04-26 10:21 19.57311 62.67519 28870 ft 497 kts 121°
2026-04-26 10:22 19.53536 62.73666 28870 ft 496 kts 120°
2026-04-26 10:22 19.49777 62.79783 28871 ft 497 kts 120°
2026-04-26 10:23 19.45992 62.85934 28870 ft 497 kts 120°
2026-04-26 10:23 19.42224 62.92052 28871 ft 498 kts 120°
2026-04-26 10:24 19.38429 62.98208 28870 ft 498 kts 121°
2026-04-26 10:24 19.34652 63.04328 28867 ft 499 kts 121°
2026-04-26 10:25 19.30861 63.10464 28862 ft 498 kts 120°
2026-04-26 10:25 19.27061 63.16608 28861 ft 499 kts 120°
2026-04-26 10:26 19.23277 63.22720 28860 ft 498 kts 120°
2026-04-26 10:26 19.19472 63.28861 28861 ft 498 kts 120°
2026-04-26 10:27 19.15691 63.34956 28859 ft 498 kts 121°
2026-04-26 10:27 19.11879 63.41096 28856 ft 498 kts 120°
2026-04-26 10:28 19.08080 63.47209 28851 ft 499 kts 121°
2026-04-26 10:28 19.04285 63.53308 28852 ft 500 kts 120°
2026-04-26 10:29 19.00463 63.59449 28856 ft 499 kts 120°
2026-04-26 10:29 18.96647 63.65571 28855 ft 498 kts 121°
2026-04-26 10:30 18.92849 63.71661 28857 ft 497 kts 121°
2026-04-26 10:30 18.89021 63.77793 28852 ft 499 kts 121°
2026-04-26 10:31 18.85215 63.83886 28850 ft 499 kts 121°
2026-04-26 10:31 18.81393 63.89997 28851 ft 499 kts 121°
2026-04-26 10:32 18.77586 63.96079 28847 ft 498 kts 121°
2026-04-26 10:32 18.73750 64.02200 28848 ft 498 kts 121°
2026-04-26 10:33 18.69952 64.08254 28847 ft 496 kts 121°
2026-04-26 10:33 18.66140 64.14327 28851 ft 497 kts 121°
2026-04-26 10:34 18.62326 64.20396 28855 ft 497 kts 121°
2026-04-26 10:34 18.58489 64.26495 28856 ft 498 kts 121°
2026-04-26 10:35 18.54668 64.32563 28850 ft 496 kts 121°
2026-04-26 10:35 18.50848 64.38625 28850 ft 496 kts 121°
2026-04-26 10:36 18.47055 64.44637 28847 ft 496 kts 121°
2026-04-26 10:36 18.43225 64.50702 28843 ft 496 kts 121°
2026-04-26 10:37 18.39408 64.56741 28837 ft 497 kts 121°
2026-04-26 10:37 18.35564 64.62817 28831 ft 496 kts 121°
2026-04-26 10:38 18.31735 64.68863 28833 ft 496 kts 121°
2026-04-26 10:38 18.27918 64.74886 28832 ft 497 kts 121°
2026-04-26 10:39 18.24075 64.80943 28833 ft 497 kts 121°
2026-04-26 10:39 18.20253 64.86961 28832 ft 496 kts 121°
2026-04-26 10:40 18.16433 64.92971 28831 ft 495 kts 121°
2026-04-26 10:40 18.12593 64.99007 28829 ft 496 kts 121°
2026-04-26 10:41 18.08761 65.05026 28828 ft 496 kts 121°
2026-04-26 10:41 18.04940 65.11020 28826 ft 497 kts 121°
2026-04-26 10:42 18.01086 65.17061 28827 ft 496 kts 121°
2026-04-26 10:42 17.97239 65.23085 28833 ft 496 kts 121°
2026-04-26 10:43 17.93414 65.29069 28841 ft 495 kts 121°
2026-04-26 10:43 17.89584 65.35056 28843 ft 495 kts 122°
2026-04-26 10:44 17.85729 65.41077 28845 ft 495 kts 122°
2026-04-26 10:44 17.81893 65.47063 28843 ft 494 kts 122°
2026-04-26 10:45 17.78078 65.53011 28845 ft 494 kts 122°
2026-04-26 10:45 17.74232 65.59000 28844 ft 493 kts 122°
2026-04-26 10:46 17.70407 65.64952 28845 ft 492 kts 122°
2026-04-26 10:46 17.66576 65.70909 28847 ft 492 kts 122°
2026-04-26 10:47 17.62754 65.76846 28848 ft 492 kts 122°
2026-04-26 10:47 17.59000 65.82819 28847 ft 490 kts 121°
2026-04-26 10:48 17.55310 65.88827 28841 ft 490 kts 121°
2026-04-26 10:48 17.51625 65.94813 28843 ft 490 kts 121°
2026-04-26 10:49 17.47922 66.00818 28845 ft 491 kts 122°
2026-04-26 10:49 17.44220 66.06809 28845 ft 490 kts 121°
2026-04-26 10:50 17.41125 66.11815 28845 ft 491 kts 122°
2026-04-26 10:50 17.36803 66.18796 28839 ft 488 kts 122°
2026-04-26 10:51 17.31267 66.27728 28832 ft 486 kts 122°
2026-04-26 10:52 17.27609 66.33624 28831 ft 484 kts 122°
2026-04-26 10:52 17.23953 66.39510 28830 ft 483 kts 123°
2026-04-26 10:53 17.20299 66.45389 28826 ft 482 kts 123°
2026-04-26 10:53 17.16644 66.51263 28823 ft 480 kts 123°
2026-04-26 10:54 17.11164 66.60063 28819 ft 485 kts 124°
2026-04-26 10:54 17.07478 66.65974 28819 ft 489 kts 126°
2026-04-26 10:55 17.03764 66.71925 28817 ft 490 kts 126°
2026-04-26 10:55 17.00000 66.77950 28823 ft 500 kts 126°
2026-04-26 10:56 16.96213 66.84008 28821 ft 500 kts 127°
2026-04-26 10:56 16.92382 66.90133 28827 ft 501 kts 127°
2026-04-26 10:57 16.88587 66.96192 28826 ft 503 kts 127°
2026-04-26 10:57 16.84757 67.02303 28831 ft 505 kts 127°
2026-04-26 10:58 16.80902 67.08448 28835 ft 506 kts 128°
2026-04-26 10:58 16.77047 67.14590 28838 ft 506 kts 128°
2026-04-26 10:59 16.73173 67.20755 28844 ft 506 kts 128°
2026-04-26 10:59 16.69321 67.26879 28847 ft 506 kts 128°
2026-04-26 11:00 16.65474 67.32989 28846 ft 505 kts 128°
2026-04-26 11:00 16.61591 67.39151 28845 ft 506 kts 128°
2026-04-26 11:01 16.57745 67.45251 28846 ft 504 kts 128°
2026-04-26 11:01 16.53875 67.51381 28846 ft 506 kts 128°
2026-04-26 11:02 16.50026 67.57475 28843 ft 504 kts 128°
2026-04-26 11:02 16.46168 67.63575 28839 ft 506 kts 128°
2026-04-26 11:03 16.42288 67.69707 28828 ft 506 kts 129°
2026-04-26 11:03 16.38411 67.75830 28826 ft 506 kts 129°
2026-04-26 11:04 16.34536 67.81942 28825 ft 507 kts 129°
2026-04-26 11:04 16.30664 67.88047 28825 ft 505 kts 129°
2026-04-26 11:05 16.26786 67.94153 28825 ft 508 kts 129°
2026-04-26 11:05 16.22930 68.00275 28825 ft 507 kts 128°
2026-04-26 11:06 16.19074 68.06412 28825 ft 506 kts 128°
2026-04-26 11:06 16.15208 68.12554 28825 ft 507 kts 129°
2026-04-26 11:07 16.11358 68.18665 28825 ft 506 kts 128°
2026-04-26 11:07 16.07503 68.24779 28825 ft 508 kts 128°
2026-04-26 11:08 16.03631 68.30913 28826 ft 506 kts 128°
2026-04-26 11:08 15.99760 68.37040 28825 ft 508 kts 128°
2026-04-26 11:09 15.95877 68.43184 28826 ft 506 kts 129°
2026-04-26 11:09 15.92010 68.49293 28829 ft 508 kts 129°
2026-04-26 11:10 15.88140 68.55405 28835 ft 505 kts 128°
2026-04-26 11:10 15.84270 68.61512 28836 ft 507 kts 128°
2026-04-26 11:11 15.80372 68.67654 28826 ft 507 kts 129°
2026-04-26 11:11 15.76495 68.73762 28824 ft 508 kts 129°
2026-04-26 11:12 15.72629 68.79848 28823 ft 506 kts 129°
2026-04-26 11:12 15.68762 68.85928 28818 ft 505 kts 129°
2026-04-26 11:13 15.64892 68.92008 28807 ft 505 kts 129°
2026-04-26 11:13 15.61027 68.98077 28808 ft 505 kts 129°
2026-04-26 11:14 15.57130 69.04188 28808 ft 506 kts 129°
2026-04-26 11:14 15.53263 69.10250 28808 ft 506 kts 129°
2026-04-26 11:15 15.49398 69.16304 28821 ft 505 kts 129°
2026-04-26 11:15 15.45514 69.22380 28826 ft 506 kts 129°
2026-04-26 11:16 15.41629 69.28455 28820 ft 505 kts 128°
2026-04-26 11:16 15.37747 69.34521 28822 ft 506 kts 129°
2026-04-26 11:17 15.33839 69.40623 28820 ft 506 kts 129°
2026-04-26 11:17 15.29959 69.46674 28818 ft 506 kts 128°
2026-04-26 11:18 15.26077 69.52724 28817 ft 506 kts 129°
2026-04-26 11:18 15.22158 69.58828 28817 ft 506 kts 128°
2026-04-26 11:19 15.18251 69.64908 28818 ft 508 kts 129°
2026-04-26 11:19 15.14354 69.70969 28799 ft 506 kts 129°
2026-04-26 11:20 15.11101 69.76027 28804 ft 507 kts 129°
2026-04-26 11:20 15.06589 69.83141 28801 ft 507 kts 128°
2026-04-26 11:21 15.02711 69.89257 28798 ft 508 kts 128°
2026-04-26 11:21 14.98837 69.95360 28800 ft 507 kts 128°
2026-04-26 11:22 14.94982 70.01426 28799 ft 507 kts 128°
2026-04-26 11:22 14.91107 70.07516 28806 ft 508 kts 128°
2026-04-26 11:23 14.87209 70.13639 28812 ft 508 kts 128°
2026-04-26 11:23 14.83338 70.19715 28814 ft 507 kts 128°
2026-04-26 11:24 14.79450 70.25811 28807 ft 507 kts 128°
2026-04-26 11:24 14.75574 70.31885 28810 ft 506 kts 128°
2026-04-26 11:25 14.71701 70.37949 28813 ft 507 kts 128°
2026-04-26 11:25 14.67829 70.44007 28811 ft 507 kts 128°
2026-04-26 11:26 14.63955 70.50064 28815 ft 506 kts 128°
2026-04-26 11:26 14.60076 70.56123 28818 ft 506 kts 128°
2026-04-26 11:27 14.56199 70.62177 28818 ft 505 kts 128°
2026-04-26 11:27 14.52308 70.68244 28811 ft 507 kts 128°
2026-04-26 11:28 14.48428 70.74292 28808 ft 506 kts 128°
2026-04-26 11:28 14.44534 70.80357 28804 ft 505 kts 128°
2026-04-26 11:29 14.40651 70.86401 28806 ft 505 kts 128°
2026-04-26 11:29 14.36752 70.92464 28803 ft 505 kts 128°
2026-04-26 11:30 14.33536 70.97488 28807 ft 505 kts 128°
2026-04-26 11:30 14.29064 71.04578 28808 ft 506 kts 128°
2026-04-26 11:31 14.25216 71.10673 28805 ft 506 kts 127°
2026-04-26 11:31 14.21382 71.16737 28807 ft 506 kts 127°
2026-04-26 11:32 14.17525 71.22832 28806 ft 506 kts 128°
2026-04-26 11:32 14.13688 71.28893 28805 ft 506 kts 127°
2026-04-26 11:33 14.09854 71.34940 28806 ft 506 kts 127°
2026-04-26 11:33 14.05986 71.41036 28870 ft 512 kts 127°
2026-04-26 11:34 14.04037 71.44105 29298 ft 511 kts 127°
2026-04-26 11:34 14.02107 71.47150 30021 ft 504 kts 128°
2026-04-26 11:34 14.00220 71.50123 30640 ft 500 kts 128°
2026-04-26 11:34 13.98294 71.53152 30792 ft 502 kts 128°
2026-04-26 11:35 13.94503 71.59116 30804 ft 499 kts 128°
2026-04-26 11:35 13.91333 71.64098 30801 ft 497 kts 128°
2026-04-26 11:36 13.86881 71.71091 30804 ft 498 kts 128°
2026-04-26 11:36 13.83088 71.77043 30801 ft 498 kts 128°
2026-04-26 11:37 13.79297 71.82989 30804 ft 498 kts 128°
2026-04-26 11:37 13.75494 71.88950 30801 ft 498 kts 128°
2026-04-26 11:38 13.71706 71.94883 30795 ft 497 kts 128°
2026-04-26 11:38 13.67830 72.00746 30788 ft 495 kts 133°
2026-04-26 11:39 13.63523 72.06232 30786 ft 494 kts 133°
2026-04-26 11:39 13.59167 72.11736 30794 ft 494 kts 133°
2026-04-26 11:40 13.54864 72.17177 30804 ft 493 kts 133°
2026-04-26 11:40 13.50504 72.22684 30802 ft 494 kts 133°
2026-04-26 11:42 13.33194 72.44529 30798 ft 493 kts 133°
2026-04-26 11:43 13.28858 72.49995 30798 ft 493 kts 133°
2026-04-26 11:43 13.24522 72.55454 30795 ft 493 kts 133°
2026-04-26 11:44 13.20202 72.60892 30793 ft 493 kts 133°
2026-04-26 11:44 13.15876 72.66333 30787 ft 492 kts 133°
2026-04-26 11:45 13.11544 72.71777 30784 ft 493 kts 133°
2026-04-26 11:45 13.07219 72.77212 30782 ft 492 kts 133°
2026-04-26 11:46 13.02875 72.82666 30783 ft 491 kts 133°
2026-04-26 11:46 12.98569 72.88068 30785 ft 493 kts 133°
2026-04-26 11:47 12.94232 72.93506 30782 ft 492 kts 133°
2026-04-26 11:47 12.89883 72.98958 30780 ft 492 kts 133°
2026-04-26 11:48 12.85558 73.04372 30788 ft 493 kts 133°
2026-04-26 11:48 12.81206 73.09821 30787 ft 492 kts 133°
2026-04-26 11:49 12.76887 73.15223 30786 ft 492 kts 133°
2026-04-26 11:49 12.72546 73.20651 30787 ft 491 kts 133°
2026-04-26 11:50 12.68228 73.26045 30784 ft 491 kts 133°
2026-04-26 11:50 12.63899 73.31451 30781 ft 491 kts 133°
2026-04-26 11:51 12.59556 73.36871 30775 ft 491 kts 133°
2026-04-26 11:51 12.55223 73.42275 30775 ft 491 kts 133°
2026-04-26 11:52 12.51604 73.46787 30773 ft 491 kts 133°
2026-04-26 11:52 12.46560 73.53070 30774 ft 492 kts 133°
2026-04-26 11:53 12.42219 73.58475 30776 ft 492 kts 133°
2026-04-26 11:54 12.35686 73.66603 30779 ft 492 kts 133°
2026-04-26 11:54 12.31318 73.72033 30780 ft 493 kts 133°
2026-04-26 11:55 12.26967 73.77439 30782 ft 493 kts 133°
2026-04-26 11:55 12.22613 73.82847 30784 ft 493 kts 133°
2026-04-26 11:56 12.18261 73.88248 30784 ft 493 kts 133°
2026-04-26 11:56 12.13888 73.93673 30783 ft 492 kts 133°
2026-04-26 11:57 12.09529 73.99076 30780 ft 494 kts 133°
2026-04-26 11:57 12.05145 74.04507 30781 ft 494 kts 133°
2026-04-26 11:58 12.00793 74.09896 30782 ft 495 kts 133°
2026-04-26 11:58 11.96409 74.15322 30782 ft 495 kts 133°
2026-04-26 11:59 11.92021 74.20750 30782 ft 495 kts 133°
2026-04-26 11:59 11.87638 74.26168 30790 ft 495 kts 133°
2026-04-26 12:00 11.83239 74.31602 30789 ft 495 kts 133°
2026-04-26 12:00 11.78858 74.37013 30789 ft 496 kts 133°
2026-04-26 12:01 11.74481 74.42415 30787 ft 494 kts 133°
2026-04-26 12:01 11.70093 74.47828 30786 ft 495 kts 133°
2026-04-26 12:02 11.65696 74.53248 30787 ft 495 kts 133°
2026-04-26 12:02 11.61312 74.58650 30782 ft 495 kts 133°
2026-04-26 12:03 11.56917 74.64061 30788 ft 496 kts 133°
2026-04-26 12:03 11.52487 74.69514 30782 ft 496 kts 133°
2026-04-26 12:04 11.48091 74.74921 30781 ft 496 kts 133°
2026-04-26 12:04 11.43695 74.80325 30782 ft 496 kts 133°
2026-04-26 12:05 11.39283 74.85747 30784 ft 496 kts 133°
2026-04-26 12:05 11.34885 74.91149 30784 ft 496 kts 133°
2026-04-26 12:06 11.30473 74.96563 30784 ft 496 kts 133°
2026-04-26 12:06 11.26083 75.01949 30777 ft 496 kts 133°
2026-04-26 12:07 11.21683 75.07345 30774 ft 495 kts 133°
2026-04-26 12:07 11.17287 75.12733 30766 ft 494 kts 133°
2026-04-26 12:08 11.12882 75.18128 30766 ft 494 kts 133°
2026-04-26 12:08 11.08504 75.23489 30763 ft 495 kts 133°
2026-04-26 12:09 11.04095 75.28882 30762 ft 495 kts 133°
2026-04-26 12:09 10.99694 75.34264 30764 ft 494 kts 133°
2026-04-26 12:10 10.95281 75.39658 30763 ft 495 kts 133°
2026-04-26 12:10 10.90899 75.45011 30762 ft 494 kts 133°
2026-04-26 12:11 10.86476 75.50413 30771 ft 494 kts 133°
2026-04-26 12:11 10.82083 75.55775 30772 ft 494 kts 133°
2026-04-26 12:12 10.77702 75.61119 30773 ft 494 kts 133°
2026-04-26 12:12 10.73292 75.66496 30776 ft 493 kts 133°
2026-04-26 12:13 10.68886 75.71864 30776 ft 493 kts 133°
2026-04-26 12:13 10.64494 75.77215 30777 ft 492 kts 133°
2026-04-26 12:14 10.60091 75.82574 30782 ft 493 kts 133°
2026-04-26 12:14 10.55711 75.87904 30787 ft 494 kts 133°
2026-04-26 12:15 10.51321 75.93243 30787 ft 493 kts 133°
2026-04-26 12:15 10.46903 75.98614 30784 ft 493 kts 133°
2026-04-26 12:16 10.42510 76.03951 30784 ft 492 kts 133°
2026-04-26 12:16 10.38130 76.09271 30786 ft 492 kts 133°
2026-04-26 12:17 10.33743 76.14596 30788 ft 492 kts 133°
2026-04-26 12:17 10.29336 76.19943 30790 ft 492 kts 133°
2026-04-26 12:18 10.24950 76.25262 30792 ft 493 kts 133°
2026-04-26 12:18 10.20518 76.30634 30797 ft 492 kts 133°
2026-04-26 12:19 10.16115 76.35968 30802 ft 493 kts 132°
2026-04-26 12:19 10.11724 76.41270 30805 ft 493 kts 133°
2026-04-26 12:20 10.07297 76.46595 30810 ft 493 kts 133°
2026-04-26 12:20 10.02876 76.51913 30807 ft 492 kts 133°
2026-04-26 12:21 9.98461 76.57222 30821 ft 492 kts 132°
2026-04-26 12:21 9.94050 76.62523 30833 ft 492 kts 132°
2026-04-26 12:22 9.89612 76.67855 30835 ft 493 kts 133°
2026-04-26 12:22 9.85170 76.73189 30851 ft 493 kts 132°
2026-04-26 12:23 9.80715 76.78537 30875 ft 493 kts 132°
2026-04-26 12:23 9.76278 76.83860 30899 ft 493 kts 132°
2026-04-26 12:24 9.71879 76.89136 30919 ft 492 kts 132°
2026-04-26 12:24 9.67426 76.94474 30927 ft 492 kts 132°
2026-04-26 12:25 9.60801 77.02412 30949 ft 491 kts 132°
2026-04-26 12:25 9.56372 77.07715 30937 ft 492 kts 132°
2026-04-26 12:26 9.51936 77.13024 30941 ft 492 kts 132°
2026-04-26 12:26 9.47514 77.18314 30955 ft 493 kts 132°
2026-04-26 12:27 9.43075 77.23621 30965 ft 492 kts 132°
2026-04-26 12:27 9.38639 77.28925 30967 ft 492 kts 132°
2026-04-26 12:28 9.34222 77.34201 30936 ft 492 kts 132°
2026-04-26 12:28 9.29788 77.39497 30914 ft 491 kts 132°
2026-04-26 12:29 9.25367 77.44775 30879 ft 492 kts 132°
2026-04-26 12:30 9.18727 77.52696 30824 ft 492 kts 131°
2026-04-26 12:30 9.14302 77.57973 30820 ft 492 kts 131°
2026-04-26 12:31 9.07659 77.65891 30809 ft 492 kts 131°
2026-04-26 12:31 9.03237 77.71158 30805 ft 491 kts 131°
2026-04-26 12:32 8.98800 77.76441 30802 ft 492 kts 131°
2026-04-26 12:33 8.92150 77.84354 30797 ft 493 kts 131°
2026-04-26 12:33 8.87705 77.89642 30800 ft 492 kts 131°
2026-04-26 12:34 8.83273 77.94910 30797 ft 492 kts 131°
2026-04-26 12:34 8.78846 78.00172 30794 ft 491 kts 131°
2026-04-26 12:35 8.74430 78.05418 30782 ft 493 kts 131°
2026-04-26 12:35 8.69985 78.10697 30778 ft 492 kts 131°
2026-04-26 12:36 8.65541 78.15972 30777 ft 492 kts 131°
2026-04-26 12:36 8.61110 78.21231 30776 ft 492 kts 131°
2026-04-26 12:37 8.56657 78.26511 30776 ft 492 kts 131°
2026-04-26 12:37 8.52225 78.31767 30779 ft 491 kts 131°
2026-04-26 12:38 8.47785 78.37028 30778 ft 491 kts 131°
2026-04-26 12:38 8.43346 78.42288 30779 ft 491 kts 131°
2026-04-26 12:39 8.38916 78.47533 30781 ft 491 kts 131°
2026-04-26 12:39 8.34505 78.52756 30781 ft 490 kts 131°
2026-04-26 12:40 8.30062 78.58013 30784 ft 491 kts 130°
2026-04-26 12:40 8.25595 78.63182 30786 ft 490 kts 132°
2026-04-26 12:41 8.21014 78.68315 30789 ft 490 kts 132°
2026-04-26 12:41 8.16476 78.73406 30789 ft 488 kts 132°
2026-04-26 12:42 8.11922 78.78519 30790 ft 489 kts 132°
2026-04-26 12:42 8.07363 78.83639 30788 ft 489 kts 132°
2026-04-26 12:43 8.02806 78.88757 30787 ft 489 kts 132°
2026-04-26 12:43 7.98259 78.93863 30786 ft 488 kts 132°
2026-04-26 12:44 7.93716 78.98963 30786 ft 489 kts 132°
2026-04-26 12:44 7.89187 79.04045 30791 ft 489 kts 132°
2026-04-26 12:45 7.84652 79.09133 30800 ft 487 kts 131°
2026-04-26 12:45 7.80102 79.14237 30807 ft 489 kts 131°
2026-04-26 12:46 7.75545 79.19346 30807 ft 489 kts 131°
2026-04-26 12:46 7.71015 79.24423 30806 ft 489 kts 131°
2026-04-26 12:47 7.66505 79.29553 30806 ft 489 kts 131°
2026-04-26 12:47 7.62001 79.34688 30806 ft 488 kts 131°
2026-04-26 12:48 7.57504 79.39812 30805 ft 488 kts 131°
2026-04-26 12:48 7.52993 79.44949 30805 ft 488 kts 131°
2026-04-26 12:49 7.48478 79.50088 30805 ft 488 kts 131°
2026-04-26 12:49 7.43994 79.55188 30803 ft 489 kts 131°
2026-04-26 12:50 7.39478 79.60323 30796 ft 488 kts 131°
2026-04-26 12:50 7.34985 79.65431 30796 ft 487 kts 131°
2026-04-26 12:51 7.30479 79.70552 30798 ft 489 kts 131°
2026-04-26 12:51 7.25948 79.75699 30799 ft 489 kts 131°
2026-04-26 12:52 7.21443 79.80814 30802 ft 489 kts 131°
2026-04-26 12:52 7.16914 79.85955 30806 ft 490 kts 131°
2026-04-26 12:53 7.12165 79.90842 30806 ft 489 kts 136°
2026-04-26 12:53 7.07195 79.95534 30804 ft 489 kts 136°
2026-04-26 12:54 7.02258 80.00229 30811 ft 488 kts 135°
2026-04-26 12:54 6.97330 80.04936 30814 ft 488 kts 135°
2026-04-26 12:55 6.92407 80.09647 30823 ft 488 kts 135°
2026-04-26 12:55 6.87481 80.14367 30832 ft 489 kts 135°
2026-04-26 12:56 6.82523 80.19120 30827 ft 489 kts 135°
2026-04-26 12:56 6.77595 80.23844 30841 ft 488 kts 135°
2026-04-26 12:57 6.72672 80.28563 30849 ft 488 kts 135°
2026-04-26 12:57 6.67778 80.33253 30875 ft 487 kts 135°
2026-04-26 12:58 6.60375 80.40346 30883 ft 488 kts 135°
2026-04-26 12:58 6.55482 80.45033 30906 ft 488 kts 135°
2026-04-26 12:59 6.50552 80.49753 30916 ft 488 kts 135°
2026-04-26 12:59 6.45620 80.54474 30901 ft 488 kts 135°
2026-04-26 13:00 6.40673 80.59138 30879 ft 489 kts 139°
2026-04-26 13:00 6.35318 80.63352 30866 ft 489 kts 141°
2026-04-26 13:01 6.29882 80.67569 30861 ft 488 kts 141°
2026-04-26 13:01 6.24503 80.71744 30851 ft 488 kts 141°
2026-04-26 13:02 6.19108 80.75932 30837 ft 488 kts 141°
2026-04-26 13:02 6.13706 80.80126 30840 ft 489 kts 141°
2026-04-26 13:03 6.08318 80.84308 30846 ft 489 kts 141°
2026-04-26 13:03 6.02974 80.88535 30832 ft 488 kts 138°
2026-04-26 13:04 5.97863 80.93063 30829 ft 489 kts 137°
2026-04-26 13:04 5.92757 80.97581 30829 ft 488 kts 137°
2026-04-26 13:05 5.87649 81.02082 30825 ft 487 kts 137°
2026-04-26 13:05 5.82553 81.06562 30825 ft 488 kts 137°
2026-04-26 13:06 5.77434 81.11055 30826 ft 488 kts 137°
2026-04-26 13:06 5.72308 81.15550 30822 ft 488 kts 137°
2026-04-26 13:07 5.67192 81.20035 30812 ft 488 kts 137°
2026-04-26 13:07 5.62069 81.24522 30808 ft 488 kts 137°
2026-04-26 13:08 5.56941 81.29013 30806 ft 488 kts 137°
2026-04-26 13:08 5.51829 81.33489 30803 ft 488 kts 137°
2026-04-26 13:09 5.46730 81.37952 30803 ft 488 kts 137°
2026-04-26 13:09 5.41606 81.42436 30802 ft 488 kts 137°
2026-04-26 13:10 5.36478 81.46922 30804 ft 488 kts 137°
2026-04-26 13:10 5.31354 81.51404 30805 ft 488 kts 137°
2026-04-26 13:11 5.26243 81.55874 30804 ft 488 kts 137°
2026-04-26 13:11 5.21107 81.60364 30801 ft 488 kts 137°
2026-04-26 13:12 5.15991 81.64835 30804 ft 489 kts 137°
2026-04-26 13:12 5.10845 81.69332 30810 ft 489 kts 137°
2026-04-26 13:13 5.05727 81.73804 30808 ft 489 kts 137°
2026-04-26 13:13 5.00596 81.78286 30814 ft 488 kts 137°
2026-04-26 13:14 4.95466 81.82765 30824 ft 489 kts 137°
2026-04-26 13:14 4.90343 81.87238 30825 ft 487 kts 137°
2026-04-26 13:15 4.85212 81.91717 30826 ft 488 kts 137°
2026-04-26 13:15 4.80078 81.96197 30827 ft 488 kts 137°
2026-04-26 13:16 4.74939 82.00682 30827 ft 488 kts 137°
2026-04-26 13:16 4.69813 82.05153 30827 ft 487 kts 137°
2026-04-26 13:17 4.62159 82.11829 30827 ft 488 kts 137°
2026-04-26 13:18 4.54458 82.18544 30826 ft 487 kts 137°
2026-04-26 13:19 4.46770 82.25245 30825 ft 487 kts 137°
2026-04-26 13:19 4.41652 82.29705 30825 ft 488 kts 137°
2026-04-26 13:20 4.36533 82.34165 30825 ft 487 kts 137°
2026-04-26 13:20 4.31422 82.38617 30824 ft 487 kts 137°
2026-04-26 13:21 4.26301 82.43077 30824 ft 487 kts 137°
2026-04-26 13:21 4.21186 82.47531 30823 ft 487 kts 137°
2026-04-26 13:22 4.16093 82.51965 30823 ft 487 kts 137°
2026-04-26 13:22 4.10942 82.56448 30822 ft 487 kts 137°
2026-04-26 13:23 4.05842 82.60887 30823 ft 487 kts 137°
2026-04-26 13:23 4.00726 82.65339 30823 ft 487 kts 137°
2026-04-26 13:24 3.95618 82.69783 30824 ft 486 kts 137°
2026-04-26 13:24 3.90521 82.74216 30821 ft 487 kts 137°
2026-04-26 13:25 3.85403 82.78668 30829 ft 486 kts 137°
2026-04-26 13:25 3.80269 82.83132 30827 ft 486 kts 137°
2026-04-26 13:26 3.75156 82.87579 30829 ft 487 kts 137°
2026-04-26 13:26 3.70042 82.92024 30827 ft 487 kts 137°
2026-04-26 13:27 3.64926 82.96471 30827 ft 487 kts 137°
2026-04-26 13:27 3.59820 83.00907 30827 ft 487 kts 137°
2026-04-26 13:28 3.54638 83.05308 30827 ft 486 kts 139°
2026-04-26 13:28 3.49431 83.09651 30826 ft 487 kts 139°
2026-04-26 13:29 3.44248 83.13979 30826 ft 486 kts 139°
2026-04-26 13:29 3.39044 83.18328 30826 ft 486 kts 139°
2026-04-26 13:30 3.33825 83.22691 30826 ft 486 kts 139°
2026-04-26 13:30 3.28625 83.27036 30826 ft 486 kts 139°
2026-04-26 13:31 3.23427 83.31382 30825 ft 486 kts 139°
2026-04-26 13:31 3.18231 83.35725 30826 ft 486 kts 139°
2026-04-26 13:32 3.13035 83.40067 30827 ft 487 kts 139°
2026-04-26 13:32 3.07839 83.44409 30824 ft 486 kts 139°
2026-04-26 13:33 3.02637 83.48756 30826 ft 487 kts 139°
2026-04-26 13:33 2.97464 83.53078 30824 ft 487 kts 139°
2026-04-26 13:34 2.92268 83.57419 30824 ft 487 kts 139°
2026-04-26 13:34 2.87059 83.61770 30823 ft 486 kts 139°
2026-04-26 13:35 2.81856 83.66115 30828 ft 487 kts 139°
2026-04-26 13:35 2.76636 83.70473 30826 ft 486 kts 139°
2026-04-26 13:36 2.71447 83.74806 30831 ft 487 kts 139°
2026-04-26 13:36 2.66249 83.79147 30838 ft 486 kts 139°
2026-04-26 13:37 2.61054 83.83482 30844 ft 487 kts 139°
2026-04-26 13:37 2.55843 83.87832 30849 ft 487 kts 139°
2026-04-26 13:38 2.50618 83.92193 30845 ft 487 kts 139°
2026-04-26 13:38 2.45412 83.96538 30848 ft 488 kts 139°
2026-04-26 13:39 2.40212 84.00877 30846 ft 487 kts 139°
2026-04-26 13:39 2.34990 84.05233 30848 ft 487 kts 139°
2026-04-26 13:40 2.29885 84.09492 30846 ft 486 kts 139°
2026-04-26 13:40 2.24676 84.13837 30844 ft 487 kts 139°
2026-04-26 13:41 2.19455 84.18192 30843 ft 488 kts 139°
2026-04-26 13:41 2.14224 84.22555 30842 ft 488 kts 139°
2026-04-26 13:42 2.09009 84.26903 30842 ft 487 kts 139°
2026-04-26 13:42 2.03805 84.31242 30843 ft 488 kts 139°
2026-04-26 13:43 1.98572 84.35605 30840 ft 488 kts 139°
2026-04-26 13:43 1.93344 84.39964 30837 ft 488 kts 139°
2026-04-26 13:44 1.88115 84.44323 30832 ft 487 kts 139°
2026-04-26 13:44 1.82924 84.48650 30830 ft 488 kts 139°
2026-04-26 13:45 1.77680 84.53020 30829 ft 488 kts 139°
2026-04-26 13:45 1.72469 84.57364 30829 ft 489 kts 139°
2026-04-26 13:46 1.67230 84.61729 30827 ft 490 kts 139°
2026-04-26 13:46 1.62003 84.66086 30828 ft 490 kts 139°
2026-04-26 13:47 1.56744 84.70467 30832 ft 490 kts 139°
2026-04-26 13:47 1.51450 84.74880 31412 ft 493 kts 139°
2026-04-26 13:47 1.48842 84.77052 32103 ft 486 kts 139°
2026-04-26 13:48 1.46260 84.79203 32726 ft 482 kts 139°
2026-04-26 13:48 1.43663 84.81366 32840 ft 485 kts 139°
2026-04-26 13:48 1.41070 84.83527 32848 ft 484 kts 139°
2026-04-26 13:49 1.35916 84.87821 32847 ft 482 kts 139°
2026-04-26 13:49 1.30774 84.92104 32848 ft 483 kts 139°
2026-04-26 13:50 1.25605 84.96409 32848 ft 482 kts 139°
2026-04-26 13:50 1.20429 85.00720 32848 ft 483 kts 139°
2026-04-26 13:51 1.15289 85.05000 32847 ft 483 kts 139°
2026-04-26 13:51 1.10084 85.09335 32847 ft 484 kts 139°
2026-04-26 13:52 1.04940 85.13619 32847 ft 484 kts 139°
2026-04-26 13:52 0.99929 85.18111 32846 ft 484 kts 136°
2026-04-26 13:53 0.94940 85.22675 32847 ft 484 kts 137°
2026-04-26 13:53 0.89961 85.27214 32846 ft 484 kts 136°
2026-04-26 13:54 0.84976 85.31750 32847 ft 484 kts 136°
2026-04-26 13:54 0.80000 85.36275 32846 ft 483 kts 136°
2026-04-26 13:55 0.73352 85.42316 32846 ft 485 kts 137°
2026-04-26 13:56 0.65034 85.49872 32845 ft 484 kts 136°
2026-04-26 13:56 0.60023 85.54422 32845 ft 485 kts 136°
2026-04-26 13:57 0.55027 85.58958 32845 ft 486 kts 136°
2026-04-26 13:57 0.50036 85.63490 32847 ft 486 kts 136°
2026-04-26 13:58 0.45009 85.68055 32853 ft 486 kts 136°
2026-04-26 13:58 0.40007 85.72597 32858 ft 486 kts 136°
2026-04-26 13:59 0.35002 85.77141 32864 ft 486 kts 136°
2026-04-26 13:59 0.29980 85.81700 32866 ft 487 kts 136°
2026-04-26 14:00 0.19939 85.90816 32865 ft 488 kts 136°
2026-04-26 14:01 0.14917 85.95376 32866 ft 488 kts 136°
2026-04-26 14:01 0.09875 85.99953 32864 ft 489 kts 137°
2026-04-26 14:02 0.04855 86.04511 32864 ft 488 kts 137°
2026-04-26 14:02 -0.00189 86.09090 32866 ft 489 kts 136°
2026-04-26 14:03 -0.05211 86.13649 32867 ft 489 kts 136°
2026-04-26 14:03 -0.10257 86.18231 32865 ft 489 kts 136°
2026-04-26 14:04 -0.15284 86.22795 32854 ft 489 kts 136°
2026-04-26 14:04 -0.20325 86.27371 32852 ft 489 kts 136°
2026-04-26 14:05 -0.25367 86.31949 32854 ft 489 kts 136°
2026-04-26 14:05 -0.30416 86.36533 32853 ft 489 kts 136°
2026-04-26 14:06 -0.35518 86.41048 32855 ft 489 kts 137°
2026-04-26 14:06 -0.40615 86.45494 32852 ft 489 kts 137°
2026-04-26 14:07 -0.45736 86.49967 32853 ft 489 kts 137°
2026-04-26 14:07 -0.50872 86.54456 32845 ft 489 kts 137°
2026-04-26 14:08 -0.56004 86.58944 32847 ft 489 kts 137°
2026-04-26 14:08 -0.61105 86.63406 32844 ft 489 kts 137°
2026-04-26 14:09 -0.66228 86.67888 32847 ft 489 kts 137°
2026-04-26 14:09 -0.71350 86.72369 32851 ft 489 kts 137°
2026-04-26 14:10 -0.76498 86.76873 32856 ft 490 kts 137°
2026-04-26 14:10 -0.81606 86.81342 32860 ft 489 kts 137°
2026-04-26 14:11 -0.89299 86.88075 32864 ft 488 kts 137°
2026-04-26 14:11 -0.94440 86.92574 32869 ft 490 kts 137°
2026-04-26 14:12 -0.99552 86.97047 32869 ft 490 kts 138°
2026-04-26 14:12 -1.04687 87.01541 32868 ft 490 kts 137°
2026-04-26 14:13 -1.12372 87.08267 32867 ft 490 kts 137°
2026-04-26 14:14 -1.17496 87.12752 32867 ft 489 kts 137°
2026-04-26 14:14 -1.22625 87.17242 32868 ft 490 kts 137°
2026-04-26 14:15 -1.27761 87.21738 32867 ft 490 kts 137°
2026-04-26 14:15 -1.32895 87.26231 32868 ft 491 kts 137°
2026-04-26 14:16 -1.38046 87.30741 32868 ft 492 kts 138°
2026-04-26 14:16 -1.43192 87.35246 32867 ft 491 kts 138°
2026-04-26 14:17 -1.48338 87.39751 32869 ft 492 kts 137°
2026-04-26 14:17 -1.53492 87.44264 32866 ft 492 kts 138°
2026-04-26 14:18 -1.58630 87.48764 32869 ft 492 kts 138°
2026-04-26 14:18 -1.63803 87.53293 32865 ft 492 kts 138°
2026-04-26 14:19 -1.68956 87.57806 32865 ft 493 kts 138°
2026-04-26 14:19 -1.74117 87.62325 32863 ft 494 kts 138°
2026-04-26 14:20 -1.79292 87.66859 32869 ft 494 kts 138°
2026-04-26 14:20 -1.84468 87.71392 32862 ft 494 kts 138°
2026-04-26 14:21 -1.89635 87.75919 32859 ft 492 kts 138°
2026-04-26 14:21 -1.94771 87.80418 32853 ft 493 kts 138°
2026-04-26 14:22 -1.99964 87.84969 32851 ft 495 kts 138°
2026-04-26 14:22 -2.05185 87.89447 32853 ft 495 kts 139°
2026-04-26 14:23 -2.10426 87.93915 32848 ft 496 kts 139°
2026-04-26 14:23 -2.15673 87.98392 32858 ft 495 kts 139°
2026-04-26 14:24 -2.20919 88.02871 32865 ft 494 kts 139°
2026-04-26 14:24 -2.26140 88.07330 32870 ft 494 kts 139°
2026-04-26 14:25 -2.31389 88.11813 32866 ft 494 kts 139°
2026-04-26 14:25 -2.36621 88.16284 32868 ft 495 kts 139°
2026-04-26 14:26 -2.41866 88.20766 32869 ft 495 kts 139°
2026-04-26 14:26 -2.47093 88.25234 32867 ft 495 kts 139°
2026-04-26 14:27 -2.52341 88.29720 32870 ft 495 kts 139°
2026-04-26 14:27 -2.57565 88.34185 32869 ft 494 kts 139°
2026-04-26 14:28 -2.62780 88.38644 32869 ft 493 kts 139°
2026-04-26 14:28 -2.68015 88.43119 32867 ft 494 kts 139°
2026-04-26 14:29 -2.73230 88.47578 32869 ft 494 kts 139°
2026-04-26 14:29 -2.78464 88.52056 32868 ft 493 kts 139°
2026-04-26 14:30 -2.83679 88.56516 32869 ft 494 kts 139°
2026-04-26 14:30 -2.88886 88.60977 32872 ft 493 kts 139°
2026-04-26 14:31 -2.94092 88.65479 32867 ft 493 kts 139°
2026-04-26 14:31 -2.99278 88.69965 32869 ft 493 kts 139°
2026-04-26 14:32 -3.04497 88.74478 32870 ft 493 kts 138°
2026-04-26 14:32 -3.09694 88.78971 32870 ft 493 kts 139°
2026-04-26 14:33 -3.14856 88.83436 32868 ft 493 kts 139°
2026-04-26 14:33 -3.20065 88.87941 32867 ft 493 kts 139°
2026-04-26 14:34 -3.25247 88.92423 32868 ft 492 kts 139°
2026-04-26 14:34 -3.30433 88.96910 32868 ft 492 kts 139°
2026-04-26 14:35 -3.35604 89.01384 32868 ft 492 kts 139°
2026-04-26 14:35 -3.40818 89.05896 32867 ft 493 kts 139°
2026-04-26 14:36 -3.46003 89.10384 32867 ft 493 kts 139°
2026-04-26 14:36 -3.51175 89.14860 32870 ft 493 kts 139°
2026-04-26 14:37 -3.56370 89.19357 32873 ft 493 kts 139°
2026-04-26 14:37 -3.61585 89.23872 32878 ft 493 kts 139°
2026-04-26 14:38 -3.66762 89.28356 32878 ft 493 kts 139°
2026-04-26 14:38 -3.71941 89.32842 32882 ft 493 kts 139°
2026-04-26 14:39 -3.77149 89.37353 32880 ft 493 kts 139°
2026-04-26 14:39 -3.82314 89.41828 32877 ft 493 kts 139°
2026-04-26 14:40 -3.87499 89.46322 32870 ft 493 kts 139°
2026-04-26 14:40 -3.92703 89.50832 32868 ft 493 kts 139°
2026-04-26 14:41 -3.97914 89.55349 32867 ft 494 kts 139°
2026-04-26 14:41 -4.03105 89.59849 32869 ft 494 kts 138°
2026-04-26 14:42 -4.08284 89.64339 32869 ft 493 kts 138°
2026-04-26 14:42 -4.13472 89.68839 32869 ft 493 kts 138°
2026-04-26 14:43 -4.18694 89.73370 32869 ft 493 kts 138°
2026-04-26 14:43 -4.23880 89.77869 32869 ft 493 kts 138°
2026-04-26 14:44 -4.29061 89.82365 32869 ft 494 kts 139°
2026-04-26 14:44 -4.34237 89.86858 32869 ft 493 kts 139°
2026-04-26 14:45 -4.39449 89.91382 32868 ft 492 kts 138°
2026-04-26 14:45 -4.44629 89.95880 32868 ft 492 kts 139°
2026-04-26 14:46 -4.49789 90.00362 32868 ft 493 kts 138°
2026-04-26 14:46 -4.54994 90.04882 32869 ft 493 kts 139°
2026-04-26 14:47 -4.60161 90.09371 32869 ft 491 kts 139°
2026-04-26 14:47 -4.65320 90.13854 32868 ft 492 kts 139°
2026-04-26 14:48 -4.70521 90.18375 32868 ft 493 kts 139°
2026-04-26 14:48 -4.75716 90.22890 32868 ft 493 kts 138°
2026-04-26 14:49 -4.80881 90.27381 32867 ft 493 kts 139°
2026-04-26 14:49 -4.86067 90.31892 32868 ft 492 kts 139°
2026-04-26 14:50 -4.91212 90.36367 32867 ft 490 kts 139°
2026-04-26 14:50 -4.96391 90.40872 32873 ft 492 kts 139°
2026-04-26 14:51 -5.01571 90.45380 32879 ft 494 kts 139°
2026-04-26 14:51 -5.06763 90.49899 32883 ft 495 kts 139°
2026-04-26 14:52 -5.11960 90.54424 32886 ft 495 kts 139°
2026-04-26 14:52 -5.17151 90.58944 32890 ft 495 kts 139°
2026-04-26 14:53 -5.22378 90.63498 32891 ft 496 kts 139°
2026-04-26 14:53 -5.27590 90.68038 32890 ft 495 kts 139°
2026-04-26 14:54 -5.32784 90.72563 32891 ft 495 kts 139°
2026-04-26 14:54 -5.37970 90.77123 32892 ft 494 kts 139°
2026-04-26 14:55 -5.43128 90.81681 32891 ft 494 kts 139°
2026-04-26 14:55 -5.48313 90.86262 32887 ft 494 kts 139°
2026-04-26 14:56 -5.53485 90.90833 32884 ft 495 kts 138°
2026-04-26 14:56 -5.58645 90.95393 32882 ft 494 kts 139°
2026-04-26 14:57 -5.63787 90.99937 32881 ft 494 kts 139°
2026-04-26 14:57 -5.68971 91.04519 32885 ft 493 kts 139°
2026-04-26 14:58 -5.74115 91.09068 32885 ft 493 kts 139°
2026-04-26 14:58 -5.79243 91.13603 32883 ft 493 kts 139°
2026-04-26 14:59 -5.84390 91.18156 32890 ft 492 kts 139°
2026-04-26 14:59 -5.89546 91.22719 32890 ft 493 kts 139°
2026-04-26 15:00 -5.94686 91.27269 32886 ft 494 kts 139°
2026-04-26 15:00 -5.99873 91.31860 32882 ft 494 kts 139°
2026-04-26 15:01 -6.05034 91.36431 32884 ft 494 kts 139°
2026-04-26 15:01 -6.10190 91.40997 32876 ft 494 kts 139°
2026-04-26 15:02 -6.15320 91.45543 32876 ft 493 kts 139°
2026-04-26 15:02 -6.20490 91.50126 32881 ft 494 kts 139°
2026-04-26 15:03 -6.25654 91.54704 32884 ft 495 kts 139°
2026-04-26 15:03 -6.30808 91.59274 32887 ft 494 kts 139°
2026-04-26 15:04 -6.35963 91.63847 32890 ft 495 kts 139°
2026-04-26 15:04 -6.41121 91.68424 32889 ft 494 kts 139°
2026-04-26 15:05 -6.46307 91.73025 32886 ft 495 kts 139°
2026-04-26 15:05 -6.51471 91.77611 32888 ft 496 kts 139°
2026-04-26 15:06 -6.56639 91.82199 32886 ft 496 kts 139°
2026-04-26 15:06 -6.61807 91.86790 32889 ft 495 kts 139°
2026-04-26 15:07 -6.69589 91.93704 32889 ft 496 kts 139°
2026-04-26 15:07 -6.74768 91.98309 32888 ft 495 kts 139°
2026-04-26 15:08 -6.79913 92.02883 32893 ft 494 kts 139°
2026-04-26 15:08 -6.85073 92.07471 32879 ft 495 kts 139°
2026-04-26 15:09 -6.90254 92.12081 32888 ft 495 kts 139°
2026-04-26 15:09 -6.95409 92.16670 32891 ft 496 kts 139°
2026-04-26 15:10 -6.99720 92.20508 32886 ft 495 kts 139°
2026-04-26 15:10 -7.05728 92.25858 32886 ft 495 kts 139°
2026-04-26 15:11 -7.10906 92.30471 32887 ft 496 kts 139°
2026-04-26 15:11 -7.16068 92.35070 32892 ft 497 kts 139°
2026-04-26 15:12 -7.21259 92.39698 32888 ft 496 kts 139°
2026-04-26 15:12 -7.26421 92.44300 32888 ft 496 kts 139°
2026-04-26 15:13 -7.31587 92.48908 32891 ft 497 kts 139°
2026-04-26 15:13 -7.36760 92.53523 32894 ft 498 kts 139°
2026-04-26 15:14 -7.41948 92.58153 32890 ft 498 kts 139°
2026-04-26 15:14 -7.47156 92.62803 32891 ft 498 kts 139°
2026-04-26 15:15 -7.52328 92.67423 32889 ft 497 kts 139°
2026-04-26 15:15 -7.57505 92.72047 32887 ft 498 kts 139°
2026-04-26 15:16 -7.62687 92.76678 32888 ft 497 kts 139°
2026-04-26 15:16 -7.67868 92.81311 32890 ft 498 kts 139°
2026-04-26 15:17 -7.72201 92.85185 32887 ft 498 kts 139°
2026-04-26 15:17 -7.78255 92.90601 32885 ft 499 kts 139°
2026-04-26 15:18 -7.83457 92.95257 32889 ft 501 kts 139°
2026-04-26 15:18 -7.88653 92.99908 32889 ft 500 kts 139°
2026-04-26 15:19 -7.93850 93.04562 32888 ft 499 kts 139°
2026-04-26 15:19 -7.99088 93.09255 32891 ft 500 kts 139°
2026-04-26 15:20 -8.04260 93.13890 32890 ft 500 kts 139°
2026-04-26 15:20 -8.09455 93.18547 32884 ft 501 kts 139°
2026-04-26 15:21 -8.14677 93.23230 32880 ft 500 kts 139°
2026-04-26 15:21 -8.19876 93.27895 32883 ft 500 kts 138°
2026-04-26 15:22 -8.25062 93.32549 32884 ft 500 kts 138°
2026-04-26 15:22 -8.30256 93.37212 32884 ft 500 kts 138°
2026-04-26 15:23 -8.35475 93.41899 32884 ft 500 kts 138°
2026-04-26 15:23 -8.40658 93.46556 32884 ft 501 kts 138°
2026-04-26 15:24 -8.45887 93.51256 32887 ft 501 kts 138°
2026-04-26 15:24 -8.51079 93.55925 32888 ft 501 kts 138°
2026-04-26 15:25 -8.55430 93.59838 32891 ft 502 kts 138°
2026-04-26 15:25 -8.61506 93.65305 32890 ft 500 kts 138°
2026-04-26 15:26 -8.66701 93.69981 32888 ft 499 kts 138°
2026-04-26 15:26 -8.71910 93.74672 32886 ft 501 kts 138°
2026-04-26 15:27 -8.77121 93.79367 32889 ft 502 kts 138°
2026-04-26 15:27 -8.82333 93.84064 32889 ft 502 kts 138°
2026-04-26 15:28 -8.87537 93.88756 32889 ft 502 kts 138°
2026-04-26 15:28 -8.92737 93.93446 32891 ft 501 kts 138°
2026-04-26 15:29 -8.97958 93.98158 32883 ft 500 kts 138°
2026-04-26 15:30 -9.08010 94.07912 32890 ft 502 kts 135°
2026-04-26 15:30 -9.12993 94.12908 32888 ft 503 kts 135°
2026-04-26 15:31 -9.20440 94.20356 32891 ft 503 kts 135°
2026-04-26 15:32 -9.27082 94.26990 32892 ft 503 kts 135°
2026-04-26 15:32 -9.32912 94.32813 32889 ft 503 kts 135°
2026-04-26 15:33 -9.37891 94.37788 32891 ft 504 kts 135°
2026-04-26 15:33 -9.42873 94.42766 32890 ft 504 kts 135°
2026-04-26 15:34 -9.47891 94.47782 32890 ft 504 kts 135°
2026-04-26 15:34 -9.52864 94.52756 32890 ft 503 kts 135°
2026-04-26 15:35 -9.57842 94.57736 32896 ft 503 kts 135°
2026-04-26 15:35 -9.62837 94.62735 32899 ft 504 kts 135°
2026-04-26 15:36 -9.67818 94.67722 32901 ft 505 kts 135°
2026-04-26 15:36 -9.72824 94.72737 32903 ft 505 kts 135°
2026-04-26 15:37 -9.77804 94.77728 32902 ft 505 kts 135°
2026-04-26 15:37 -9.82831 94.82768 32893 ft 505 kts 135°
2026-04-26 15:38 -9.87821 94.87774 32888 ft 506 kts 135°
2026-04-26 15:38 -9.92810 94.92780 32889 ft 505 kts 135°
2026-04-26 15:39 -9.97806 94.97796 32891 ft 504 kts 135°
2026-04-26 15:39 -10.01960 95.02042 32890 ft 506 kts 133°
2026-04-26 15:40 -10.07531 95.08154 32891 ft 507 kts 133°
2026-04-26 15:40 -10.12326 95.13413 32888 ft 507 kts 133°
2026-04-26 15:41 -10.17105 95.18646 32889 ft 507 kts 133°
2026-04-26 15:41 -10.21928 95.23922 32889 ft 507 kts 133°
2026-04-26 15:42 -10.26713 95.29154 32890 ft 506 kts 133°
2026-04-26 15:42 -10.31516 95.34408 32890 ft 508 kts 133°
2026-04-26 15:43 -10.36307 95.39651 32890 ft 508 kts 133°
2026-04-26 15:44 -10.43520 95.47546 32892 ft 508 kts 133°
2026-04-26 15:44 -10.50744 95.55459 32892 ft 509 kts 133°
2026-04-26 15:45 -10.57955 95.63364 32894 ft 509 kts 133°
2026-04-26 15:46 -10.65162 95.71269 32888 ft 508 kts 133°
2026-04-26 15:46 -10.69192 95.75691 32888 ft 509 kts 133°
2026-04-26 15:47 -10.77205 95.84492 32892 ft 509 kts 133°
2026-04-26 15:48 -10.82021 95.89785 32889 ft 510 kts 133°
2026-04-26 15:48 -10.86834 95.95077 32892 ft 510 kts 133°
2026-04-26 15:49 -10.91643 96.00368 32892 ft 510 kts 133°
2026-04-26 15:49 -10.96452 96.05661 32891 ft 510 kts 133°
2026-04-26 15:50 -11.01270 96.10967 32890 ft 509 kts 133°
2026-04-26 15:50 -11.06089 96.16277 32896 ft 509 kts 133°
2026-04-26 15:51 -11.10917 96.21598 32910 ft 510 kts 133°
2026-04-26 15:51 -11.15706 96.26881 32908 ft 511 kts 133°
2026-04-26 15:52 -11.20556 96.32233 32910 ft 511 kts 133°
2026-04-26 15:52 -11.25357 96.37534 32911 ft 512 kts 133°
2026-04-26 15:53 -11.30203 96.42887 32910 ft 512 kts 134°
2026-04-26 15:53 -11.35032 96.48225 32911 ft 512 kts 133°
2026-04-26 15:54 -11.39856 96.53559 32908 ft 512 kts 133°
2026-04-26 15:54 -11.44691 96.58910 32909 ft 512 kts 133°
2026-04-26 15:55 -11.49508 96.64243 32906 ft 512 kts 133°
2026-04-26 15:55 -11.54324 96.69578 32896 ft 512 kts 133°
2026-04-26 15:56 -11.59157 96.74934 32886 ft 513 kts 133°
2026-04-26 15:56 -11.63976 96.80277 32888 ft 513 kts 133°
2026-04-26 15:57 -11.68813 96.85644 32886 ft 514 kts 133°
2026-04-26 15:57 -11.73646 96.91009 32888 ft 513 kts 133°
2026-04-26 15:58 -11.78481 96.96380 32887 ft 513 kts 133°
2026-04-26 15:58 -11.83305 97.01741 32889 ft 514 kts 133°
2026-04-26 15:59 -11.88119 97.07095 32890 ft 514 kts 133°
2026-04-26 15:59 -11.92969 97.12491 32891 ft 514 kts 133°
2026-04-26 16:00 -11.97803 97.17873 32890 ft 515 kts 133°
2026-04-26 16:00 -12.02622 97.23241 32891 ft 514 kts 134°
2026-04-26 16:01 -12.07466 97.28640 32894 ft 516 kts 134°
2026-04-26 16:01 -12.12313 97.34045 32889 ft 515 kts 134°
2026-04-26 16:02 -12.17176 97.39471 32893 ft 516 kts 134°
2026-04-26 16:02 -12.22017 97.44876 32893 ft 516 kts 134°
2026-04-26 16:03 -12.26869 97.50296 32890 ft 515 kts 134°
2026-04-26 16:03 -12.31731 97.55731 32894 ft 516 kts 134°
2026-04-26 16:04 -12.36558 97.61130 32898 ft 517 kts 134°
2026-04-26 16:04 -12.41430 97.66583 32890 ft 517 kts 134°
2026-04-26 16:05 -12.46279 97.72013 32891 ft 518 kts 134°
2026-04-26 16:05 -12.51115 97.77432 32901 ft 517 kts 134°
2026-04-26 16:06 -12.55986 97.82893 32907 ft 517 kts 133°
2026-04-26 16:06 -12.60826 97.88322 32911 ft 518 kts 134°
2026-04-26 16:07 -12.65671 97.93760 32909 ft 518 kts 134°
2026-04-26 16:07 -12.70551 97.99242 32906 ft 517 kts 134°
2026-04-26 16:08 -12.75395 98.04685 32913 ft 518 kts 134°
2026-04-26 16:08 -12.80236 98.10129 32910 ft 519 kts 134°
2026-04-26 16:09 -12.85093 98.15594 32912 ft 520 kts 134°
2026-04-26 16:09 -12.89979 98.21095 32912 ft 520 kts 134°
2026-04-26 16:10 -12.94844 98.26577 32914 ft 519 kts 134°
2026-04-26 16:10 -12.99699 98.32050 32911 ft 520 kts 134°
2026-04-26 16:11 -13.04556 98.37529 32915 ft 520 kts 134°
2026-04-26 16:11 -13.09433 98.43034 32915 ft 521 kts 134°
2026-04-26 16:12 -13.14328 98.48563 32910 ft 521 kts 134°
2026-04-26 16:12 -13.21625 98.56812 32912 ft 521 kts 134°
2026-04-26 16:13 -13.26510 98.62338 32911 ft 523 kts 134°
2026-04-26 16:13 -13.31400 98.67873 32901 ft 522 kts 133°
2026-04-26 16:14 -13.36270 98.73390 32901 ft 523 kts 133°
2026-04-26 16:15 -13.43591 98.81690 32904 ft 524 kts 133°
2026-04-26 16:15 -13.48489 98.87247 32904 ft 524 kts 133°
2026-04-26 16:16 -13.55847 98.95602 32901 ft 525 kts 134°
2026-04-26 16:16 -13.60673 99.01247 32905 ft 526 kts 131°
2026-04-26 16:17 -13.65306 99.07023 32898 ft 526 kts 131°
2026-04-26 16:17 -13.69964 99.12821 32900 ft 527 kts 131°
2026-04-26 16:18 -13.76970 99.21529 32893 ft 527 kts 131°
2026-04-26 16:19 -13.83978 99.30235 32897 ft 527 kts 131°
2026-04-26 16:20 -13.90986 99.38944 32911 ft 528 kts 131°
2026-04-26 16:20 -13.98023 99.47694 32916 ft 529 kts 131°
2026-04-26 16:21 -14.02704 99.53520 32919 ft 530 kts 131°
2026-04-26 16:21 -14.07397 99.59367 32918 ft 528 kts 131°
2026-04-26 16:22 -14.12080 99.65202 32915 ft 529 kts 131°
2026-04-26 16:22 -14.16768 99.71049 32905 ft 530 kts 131°
2026-04-26 16:23 -14.21478 99.76927 32907 ft 532 kts 131°
2026-04-26 16:23 -14.26188 99.82809 32905 ft 531 kts 131°
2026-04-26 16:24 -14.30879 99.88673 32906 ft 532 kts 131°
2026-04-26 16:24 -14.35576 99.94547 32910 ft 533 kts 131°
2026-04-26 16:25 -14.40296 100.00455 32910 ft 533 kts 131°
2026-04-26 16:25 -14.44916 100.06241 32911 ft 533 kts 131°
2026-04-26 16:26 -14.48842 100.11163 32912 ft 533 kts 131°
2026-04-26 16:26 -14.54341 100.18060 32912 ft 535 kts 131°
2026-04-26 16:27 -14.59078 100.24007 32913 ft 533 kts 131°
2026-04-26 16:27 -14.63765 100.29895 32910 ft 534 kts 131°
2026-04-26 16:28 -14.68492 100.35838 32912 ft 535 kts 131°
2026-04-26 16:28 -14.73236 100.41806 32918 ft 536 kts 131°
2026-04-26 16:29 -14.77962 100.47755 32917 ft 536 kts 131°
2026-04-26 16:29 -14.82668 100.53687 32919 ft 536 kts 131°
2026-04-26 16:30 -14.87394 100.59646 32923 ft 538 kts 131°
2026-04-26 16:30 -14.92137 100.65632 32920 ft 535 kts 130°
2026-04-26 16:31 -14.96829 100.71557 32909 ft 534 kts 131°
2026-04-26 16:31 -15.01569 100.77548 32911 ft 537 kts 131°
2026-04-26 16:32 -15.05494 100.82511 32915 ft 538 kts 130°
2026-04-26 16:32 -15.11036 100.89527 32913 ft 539 kts 130°
2026-04-26 16:33 -15.15782 100.95541 32907 ft 538 kts 131°
2026-04-26 16:33 -15.20514 101.01540 32915 ft 540 kts 131°
2026-04-26 16:34 -15.25241 101.07537 32914 ft 539 kts 131°
2026-04-26 16:34 -15.29985 101.13562 32915 ft 540 kts 131°
2026-04-26 16:35 -15.34745 101.19611 32917 ft 542 kts 131°
2026-04-26 16:35 -15.39501 101.25660 32921 ft 542 kts 131°
2026-04-26 16:36 -15.44239 101.31690 32922 ft 542 kts 131°
2026-04-26 16:36 -15.49002 101.37759 32926 ft 541 kts 131°
2026-04-26 16:37 -15.53746 101.43807 32932 ft 542 kts 131°
2026-04-26 16:37 -15.58508 101.49883 32931 ft 543 kts 131°
2026-04-26 16:38 -15.63261 101.55952 32929 ft 543 kts 131°
2026-04-26 16:38 -15.68034 101.62052 32932 ft 544 kts 131°
2026-04-26 16:39 -15.72798 101.68146 32922 ft 547 kts 130°
2026-04-26 16:39 -15.77567 101.74252 32924 ft 545 kts 131°
2026-04-26 16:40 -15.82339 101.80366 32919 ft 545 kts 130°
2026-04-26 16:40 -15.87130 101.86509 32922 ft 546 kts 131°
2026-04-26 16:41 -15.91919 101.92654 32928 ft 547 kts 131°
2026-04-26 16:41 -15.96672 101.98760 32929 ft 547 kts 130°
2026-04-26 16:42 -16.01469 102.04926 32933 ft 547 kts 130°
2026-04-26 16:42 -16.06268 102.11100 32936 ft 548 kts 131°
2026-04-26 16:43 -16.11049 102.17256 32928 ft 547 kts 130°
2026-04-26 16:43 -16.15805 102.23386 32920 ft 547 kts 130°
2026-04-26 16:44 -16.20571 102.29534 32916 ft 546 kts 130°
2026-04-26 16:44 -16.25347 102.35700 32917 ft 548 kts 130°
2026-04-26 16:45 -16.30137 102.41889 32924 ft 548 kts 130°
2026-04-26 16:45 -16.34922 102.48078 32924 ft 548 kts 130°
2026-04-26 16:46 -16.39686 102.54244 32920 ft 550 kts 130°
2026-04-26 16:46 -16.44496 102.60474 32922 ft 550 kts 130°
2026-04-26 16:47 -16.49278 102.66676 32909 ft 548 kts 130°
2026-04-26 16:47 -16.54076 102.72903 32910 ft 550 kts 130°
2026-04-26 16:48 -16.58864 102.79121 32909 ft 551 kts 130°
2026-04-26 16:48 -16.63646 102.85339 32909 ft 551 kts 130°
2026-04-26 16:49 -16.68439 102.91575 32911 ft 551 kts 130°
2026-04-26 16:49 -16.73203 102.97779 32911 ft 551 kts 130°
2026-04-26 16:50 -16.78001 103.04034 32915 ft 552 kts 130°
2026-04-26 16:50 -16.82783 103.10272 32914 ft 553 kts 130°
2026-04-26 16:51 -16.87585 103.16543 32915 ft 552 kts 130°
2026-04-26 16:51 -16.92384 103.22815 32917 ft 554 kts 130°
2026-04-26 16:52 -16.96370 103.28030 32919 ft 553 kts 130°
2026-04-26 16:52 -17.01964 103.35354 32927 ft 553 kts 130°
2026-04-26 16:53 -17.06769 103.41651 32934 ft 554 kts 130°
2026-04-26 16:53 -17.11565 103.47942 32926 ft 555 kts 130°
2026-04-26 16:54 -17.16365 103.54247 32928 ft 553 kts 130°
2026-04-26 16:54 -17.21172 103.60564 32934 ft 555 kts 130°
2026-04-26 16:55 -17.25983 103.66892 32921 ft 557 kts 129°
2026-04-26 16:55 -17.30792 103.73224 32924 ft 556 kts 129°
2026-04-26 16:56 -17.37997 103.82722 32928 ft 557 kts 130°
2026-04-26 16:57 -17.42803 103.89065 32926 ft 556 kts 129°
2026-04-26 16:57 -17.49997 103.98570 32928 ft 557 kts 129°
2026-04-26 16:58 -17.54017 104.03889 32932 ft 557 kts 129°
2026-04-26 16:59 -17.62010 104.14475 32933 ft 557 kts 129°
2026-04-26 17:00 -17.71610 104.27212 32935 ft 558 kts 129°
2026-04-26 17:00 -17.78819 104.36791 32936 ft 557 kts 129°
2026-04-26 17:01 -17.83621 104.43182 32939 ft 558 kts 129°
2026-04-26 17:01 -17.88411 104.49559 32941 ft 558 kts 129°
2026-04-26 17:02 -17.93216 104.55965 32940 ft 558 kts 129°
2026-04-26 17:02 -17.98029 104.62389 32938 ft 559 kts 129°
2026-04-26 17:03 -18.02801 104.68763 32922 ft 559 kts 129°
2026-04-26 17:03 -18.07613 104.75198 32915 ft 559 kts 129°
2026-04-26 17:04 -18.12418 104.81628 32908 ft 560 kts 129°
2026-04-26 17:04 -18.17248 104.88099 32910 ft 561 kts 129°
2026-04-26 17:05 -18.22035 104.94520 32908 ft 560 kts 129°
2026-04-26 17:05 -18.26846 105.00979 32909 ft 560 kts 129°
2026-04-26 17:06 -18.31640 105.07420 32911 ft 559 kts 128°
2026-04-26 17:06 -18.36431 105.13866 32910 ft 559 kts 129°
2026-04-26 17:07 -18.41222 105.20316 32913 ft 561 kts 129°
2026-04-26 17:07 -18.46026 105.26791 32917 ft 559 kts 129°
2026-04-26 17:08 -18.50814 105.33250 32914 ft 561 kts 128°
2026-04-26 17:08 -18.55577 105.39684 32917 ft 562 kts 129°
2026-04-26 17:09 -18.59584 105.45100 32918 ft 559 kts 129°
2026-04-26 17:09 -18.65158 105.52644 32921 ft 560 kts 129°
2026-04-26 17:10 -18.69946 105.59131 32921 ft 560 kts 129°
2026-04-26 17:10 -18.74723 105.65608 32919 ft 560 kts 128°
2026-04-26 17:11 -18.79494 105.72086 32908 ft 560 kts 128°
2026-04-26 17:11 -18.84281 105.78590 32911 ft 561 kts 128°
2026-04-26 17:12 -18.91425 105.88311 32912 ft 561 kts 128°
2026-04-26 17:13 -18.98585 105.98070 32914 ft 561 kts 128°
2026-04-26 17:14 -19.05543 106.08029 32917 ft 565 kts 126°
2026-04-26 17:14 -19.12411 106.18147 32908 ft 563 kts 126°
2026-04-26 17:15 -19.19241 106.28200 32912 ft 562 kts 126°
2026-04-26 17:16 -19.23798 106.34910 32918 ft 561 kts 126°
2026-04-26 17:16 -19.28348 106.41614 32924 ft 560 kts 126°
2026-04-26 17:17 -19.32897 106.48321 32935 ft 562 kts 126°
2026-04-26 17:17 -19.37446 106.55035 32938 ft 560 kts 126°
2026-04-26 17:18 -19.41950 106.61687 32938 ft 560 kts 126°
2026-04-26 17:18 -19.46514 106.68437 32924 ft 560 kts 125°
2026-04-26 17:19 -19.53297 106.78483 32927 ft 561 kts 125°
2026-04-26 17:19 -19.57826 106.85198 32928 ft 560 kts 126°
2026-04-26 17:20 -19.61615 106.90822 32930 ft 560 kts 125°
2026-04-26 17:20 -19.66888 106.98658 32931 ft 561 kts 126°
2026-04-26 17:21 -19.71401 107.05374 32934 ft 561 kts 126°
2026-04-26 17:21 -19.75936 107.12128 32935 ft 560 kts 126°
2026-04-26 17:22 -19.80453 107.18863 32936 ft 561 kts 125°
2026-04-26 17:22 -19.84972 107.25611 32938 ft 560 kts 126°
2026-04-26 17:23 -19.89483 107.32352 32939 ft 560 kts 126°
2026-04-26 17:23 -19.94000 107.39110 32942 ft 561 kts 126°
2026-04-26 17:24 -19.98503 107.45856 32941 ft 560 kts 125°
2026-04-26 17:24 -20.03008 107.52612 32941 ft 561 kts 126°
2026-04-26 17:25 -20.07497 107.59352 32945 ft 560 kts 125°
2026-04-26 17:25 -20.11992 107.66109 32927 ft 560 kts 125°
2026-04-26 17:26 -20.16513 107.72911 32920 ft 562 kts 125°
2026-04-26 17:26 -20.21018 107.79698 32922 ft 561 kts 125°
2026-04-26 17:27 -20.25502 107.86462 32923 ft 561 kts 125°
2026-04-26 17:27 -20.29999 107.93253 32928 ft 560 kts 125°
2026-04-26 17:28 -20.34461 107.99998 32928 ft 560 kts 125°
2026-04-26 17:28 -20.38945 108.06786 32930 ft 563 kts 125°
2026-04-26 17:29 -20.42696 108.12469 32931 ft 561 kts 125°
2026-04-26 17:29 -20.47917 108.20390 32933 ft 561 kts 125°
2026-04-26 17:30 -20.52394 108.27189 32935 ft 560 kts 124°
2026-04-26 17:30 -20.56888 108.34023 32934 ft 562 kts 124°
2026-04-26 17:31 -20.61369 108.40845 32935 ft 560 kts 125°
2026-04-26 17:31 -20.65846 108.47669 32937 ft 562 kts 125°
2026-04-26 17:32 -20.70289 108.54449 32939 ft 560 kts 124°
2026-04-26 17:32 -20.74759 108.61280 32940 ft 561 kts 124°
2026-04-26 17:33 -20.79219 108.68102 32927 ft 559 kts 124°
2026-04-26 17:34 -20.85903 108.78342 32928 ft 561 kts 124°
2026-04-26 17:34 -20.90353 108.85169 32931 ft 561 kts 124°
2026-04-26 17:35 -20.94784 108.91977 32933 ft 559 kts 124°
2026-04-26 17:35 -20.99223 108.98814 32928 ft 560 kts 122°
2026-04-26 17:36 -21.03173 109.05945 32941 ft 559 kts 118°
2026-04-26 17:36 -21.07029 109.13165 32949 ft 560 kts 118°
2026-04-26 17:37 -21.10890 109.20407 32953 ft 558 kts 118°
2026-04-26 17:37 -21.14725 109.27607 32954 ft 560 kts 118°
2026-04-26 17:38 -21.20498 109.38469 32953 ft 560 kts 118°
2026-04-26 17:38 -21.24357 109.45742 32949 ft 558 kts 118°
2026-04-26 17:39 -21.28182 109.52962 32950 ft 561 kts 118°
2026-04-26 17:39 -21.32039 109.60249 32952 ft 560 kts 119°
2026-04-26 17:40 -21.35222 109.66270 32945 ft 560 kts 118°
2026-04-26 17:40 -21.39686 109.74727 32941 ft 559 kts 118°
2026-04-26 17:41 -21.43528 109.82018 32941 ft 559 kts 118°
2026-04-26 17:41 -21.47354 109.89285 32946 ft 560 kts 118°
2026-04-26 17:42 -21.51177 109.96558 32950 ft 560 kts 118°
2026-04-26 17:42 -21.54985 110.03812 32949 ft 560 kts 118°
2026-04-26 17:43 -21.58799 110.11088 32956 ft 559 kts 118°
2026-04-26 17:43 -21.62626 110.18398 32953 ft 560 kts 118°
2026-04-26 17:44 -21.66431 110.25675 32958 ft 560 kts 118°
2026-04-26 17:44 -21.70233 110.32957 32946 ft 559 kts 118°
2026-04-26 17:45 -21.74032 110.40243 32947 ft 560 kts 118°
2026-04-26 17:45 -21.77834 110.47544 32948 ft 559 kts 118°
2026-04-26 17:46 -21.81632 110.54849 32954 ft 559 kts 118°
2026-04-26 17:46 -21.85418 110.62140 32959 ft 559 kts 118°
2026-04-26 17:47 -21.88565 110.68208 32946 ft 557 kts 118°
2026-04-26 17:47 -21.92983 110.76737 33027 ft 563 kts 118°
2026-04-26 17:48 -21.94865 110.80376 33531 ft 562 kts 118°
2026-04-26 17:48 -21.96759 110.84041 34309 ft 556 kts 118°
2026-04-26 17:48 -21.98629 110.87659 34878 ft 554 kts 118°
2026-04-26 17:48 -22.00506 110.91297 34945 ft 558 kts 118°
2026-04-26 17:49 -22.04253 110.98566 34952 ft 556 kts 118°
2026-04-26 17:49 -22.08007 111.05854 34945 ft 557 kts 118°
2026-04-26 17:50 -22.11758 111.13147 34928 ft 554 kts 118°
2026-04-26 17:50 -22.15498 111.20430 34930 ft 555 kts 117°
2026-04-26 17:51 -22.19214 111.27676 34934 ft 555 kts 118°
2026-04-26 17:51 -22.22945 111.34963 34936 ft 557 kts 118°
2026-04-26 17:52 -22.26694 111.42292 34934 ft 556 kts 117°
2026-04-26 17:52 -22.30417 111.49583 34935 ft 557 kts 117°
2026-04-26 17:53 -22.34145 111.56892 34938 ft 556 kts 117°
2026-04-26 17:54 -22.39740 111.67884 34922 ft 556 kts 117°
2026-04-26 17:54 -22.43456 111.75196 34925 ft 558 kts 117°
2026-04-26 17:55 -22.47150 111.82476 34925 ft 556 kts 117°
2026-04-26 17:55 -22.50861 111.89801 34927 ft 557 kts 117°
2026-04-26 17:56 -22.54581 111.97152 34931 ft 556 kts 117°
2026-04-26 17:57 -22.61951 112.11749 34933 ft 554 kts 117°
2026-04-26 17:57 -22.65656 112.19103 34935 ft 554 kts 117°
2026-04-26 17:58 -22.73009 112.33730 34943 ft 555 kts 117°
2026-04-26 17:59 -22.78515 112.44712 34948 ft 556 kts 117°
2026-04-26 17:59 -22.82190 112.52054 34951 ft 553 kts 117°
2026-04-26 18:00 -22.85831 112.59340 34956 ft 551 kts 117°
2026-04-26 18:00 -22.89485 112.66660 34946 ft 552 kts 117°
2026-04-26 18:01 -22.93130 112.73973 34943 ft 549 kts 117°
2026-04-26 18:01 -22.96752 112.81250 34948 ft 552 kts 117°
2026-04-26 18:02 -22.99799 112.87382 34952 ft 552 kts 116°
2026-04-26 18:02 -23.04021 112.95889 34973 ft 550 kts 116°
2026-04-26 18:03 -23.07636 113.03185 34984 ft 550 kts 116°
2026-04-26 18:03 -23.11250 113.10490 34967 ft 549 kts 117°
2026-04-26 18:04 -23.14873 113.17825 34972 ft 550 kts 117°
2026-04-26 18:05 -23.20291 113.28812 34972 ft 548 kts 117°
2026-04-26 18:05 -23.23875 113.36093 34973 ft 549 kts 117°
2026-04-26 18:06 -23.27463 113.43395 34979 ft 552 kts 117°
2026-04-26 18:06 -23.31063 113.50729 34977 ft 549 kts 117°
2026-04-26 18:07 -23.34642 113.58033 34982 ft 549 kts 117°
2026-04-26 18:07 -23.38238 113.65383 34974 ft 551 kts 116°
2026-04-26 18:08 -23.41828 113.72732 34952 ft 551 kts 117°
2026-04-26 18:08 -23.45398 113.80051 34957 ft 549 kts 117°
2026-04-26 18:09 -23.48985 113.87407 34962 ft 550 kts 118°
2026-04-26 18:09 -23.53422 113.94198 34982 ft 552 kts 130°
2026-04-26 18:10 -23.58259 114.00616 34976 ft 548 kts 129°
2026-04-26 18:10 -23.63113 114.07077 34986 ft 551 kts 129°
2026-04-26 18:11 -23.67969 114.13564 34986 ft 549 kts 129°
2026-04-26 18:11 -23.72769 114.19992 34987 ft 550 kts 130°
2026-04-26 18:12 -23.77634 114.26521 34996 ft 550 kts 130°
2026-04-26 18:12 -23.82421 114.32956 35003 ft 548 kts 129°
2026-04-26 18:13 -23.87223 114.39421 35014 ft 549 kts 129°
2026-04-26 18:13 -23.92040 114.45916 35021 ft 549 kts 129°
2026-04-26 18:14 -23.96815 114.52365 35022 ft 549 kts 130°
2026-04-26 18:14 -24.01630 114.58875 35023 ft 546 kts 130°
2026-04-26 18:15 -24.06402 114.65336 35026 ft 547 kts 129°
2026-04-26 18:15 -24.11157 114.71783 35010 ft 545 kts 129°
2026-04-26 18:16 -24.15908 114.78233 35009 ft 545 kts 129°
2026-04-26 18:16 -24.23039 114.87930 35006 ft 545 kts 129°
2026-04-26 18:17 -24.27775 114.94381 35026 ft 545 kts 129°
2026-04-26 18:17 -24.32518 115.00848 35026 ft 545 kts 129°
2026-04-26 18:18 -24.37231 115.07285 35023 ft 543 kts 129°
2026-04-26 18:18 -24.41972 115.13768 35029 ft 543 kts 129°
2026-04-26 18:19 -24.46688 115.20225 35027 ft 546 kts 129°
2026-04-26 18:19 -24.51390 115.26672 35022 ft 542 kts 129°
2026-04-26 18:20 -24.56120 115.33166 35030 ft 545 kts 129°
2026-04-26 18:20 -24.60054 115.38574 35029 ft 543 kts 129°
2026-04-26 18:21 -24.65539 115.46125 35030 ft 542 kts 130°
2026-04-26 18:21 -24.70241 115.52606 35030 ft 543 kts 129°
2026-04-26 18:22 -24.74947 115.59101 35042 ft 541 kts 129°
2026-04-26 18:22 -24.79617 115.65556 35037 ft 541 kts 129°
2026-04-26 18:23 -24.84306 115.72047 35026 ft 541 kts 129°
2026-04-26 18:23 -24.88983 115.78529 35034 ft 541 kts 129°
2026-04-26 18:24 -24.93627 115.84974 35027 ft 539 kts 129°
2026-04-26 18:24 -24.98271 115.91427 35031 ft 536 kts 129°
2026-04-26 18:25 -25.02921 115.97898 35041 ft 538 kts 129°
2026-04-26 18:25 -25.07528 116.04318 35032 ft 536 kts 129°
2026-04-26 18:26 -25.12192 116.10826 35030 ft 538 kts 129°
2026-04-26 18:26 -25.16813 116.17283 35038 ft 540 kts 129°
2026-04-26 18:27 -25.21443 116.23761 35034 ft 537 kts 129°
2026-04-26 18:27 -25.26074 116.30250 35038 ft 537 kts 129°
2026-04-26 18:28 -25.30687 116.36722 35044 ft 538 kts 129°
2026-04-26 18:28 -25.35323 116.43235 35048 ft 538 kts 129°
2026-04-26 18:29 -25.39935 116.49725 35049 ft 537 kts 129°
2026-04-26 18:29 -25.44525 116.56191 35048 ft 537 kts 129°
2026-04-26 18:30 -25.49130 116.62688 35058 ft 537 kts 129°
2026-04-26 18:30 -25.53743 116.69204 35041 ft 539 kts 128°
2026-04-26 18:31 -25.58359 116.75734 35049 ft 538 kts 129°
2026-04-26 18:31 -25.62956 116.82247 35046 ft 537 kts 128°
2026-04-26 18:32 -25.67514 116.88714 35046 ft 536 kts 129°
2026-04-26 18:32 -25.72108 116.95240 35026 ft 536 kts 129°
2026-04-26 18:33 -25.76699 117.01772 35027 ft 538 kts 129°
2026-04-26 18:33 -25.81289 117.08312 35028 ft 536 kts 129°
2026-04-26 18:34 -25.85852 117.14822 35022 ft 537 kts 129°
2026-04-26 18:34 -25.90422 117.21349 35042 ft 537 kts 129°
2026-04-26 18:35 -25.94989 117.27885 35042 ft 534 kts 129°
2026-04-26 18:35 -25.99554 117.34424 35054 ft 536 kts 129°
2026-04-26 18:36 -26.04115 117.40968 35048 ft 534 kts 128°
2026-04-26 18:36 -26.08662 117.47502 35055 ft 537 kts 129°
2026-04-26 18:37 -26.13144 117.54078 35050 ft 536 kts 124°
2026-04-26 18:37 -26.17139 117.61101 35039 ft 535 kts 122°
2026-04-26 18:38 -26.21067 117.68121 35039 ft 537 kts 122°
2026-04-26 18:38 -26.24997 117.75161 35048 ft 535 kts 122°
2026-04-26 18:39 -26.28926 117.82211 35058 ft 537 kts 122°
2026-04-26 18:39 -26.32815 117.89201 35049 ft 532 kts 122°
2026-04-26 18:40 -26.36727 117.96244 35055 ft 535 kts 122°
2026-04-26 18:40 -26.40618 118.03260 35053 ft 532 kts 122°
2026-04-26 18:41 -26.44498 118.10268 35064 ft 532 kts 122°
2026-04-26 18:41 -26.48382 118.17295 35063 ft 530 kts 122°
2026-04-26 18:42 -26.52242 118.24288 35067 ft 531 kts 122°
2026-04-26 18:42 -26.56115 118.31317 35062 ft 532 kts 122°
2026-04-26 18:43 -26.59981 118.38344 35063 ft 532 kts 122°
2026-04-26 18:43 -26.63845 118.45377 35073 ft 530 kts 122°
2026-04-26 18:44 -26.67676 118.52361 35074 ft 532 kts 122°
2026-04-26 18:44 -26.71541 118.59421 35071 ft 532 kts 122°
2026-04-26 18:45 -26.75408 118.66493 35061 ft 531 kts 121°
2026-04-26 18:45 -26.79239 118.73511 35077 ft 531 kts 121°
2026-04-26 18:46 -26.83090 118.80576 35060 ft 532 kts 121°
2026-04-26 18:46 -26.86920 118.87614 35075 ft 531 kts 121°
2026-04-26 18:47 -26.90742 118.94651 35076 ft 533 kts 122°
2026-04-26 18:47 -26.94577 119.01720 35075 ft 530 kts 121°
2026-04-26 18:48 -26.98409 119.08797 35087 ft 531 kts 121°
2026-04-26 18:48 -27.02226 119.15855 35092 ft 531 kts 121°
2026-04-26 18:49 -27.06048 119.22936 35097 ft 533 kts 121°
2026-04-26 18:49 -27.09871 119.30028 35099 ft 530 kts 122°
2026-04-26 18:50 -27.13699 119.37142 35091 ft 530 kts 121°
2026-04-26 18:50 -27.17508 119.44233 35105 ft 533 kts 122°
2026-04-26 18:51 -27.21311 119.51323 35107 ft 530 kts 121°
2026-04-26 18:51 -27.25106 119.58411 35107 ft 530 kts 121°
2026-04-26 18:52 -27.28282 119.64352 35107 ft 534 kts 122°
2026-04-26 18:52 -27.32711 119.72650 35111 ft 531 kts 121°
2026-04-26 18:53 -27.36513 119.79784 35110 ft 530 kts 121°
2026-04-26 18:53 -27.40289 119.86882 35110 ft 531 kts 121°
2026-04-26 18:54 -27.44085 119.94030 35109 ft 531 kts 121°
2026-04-26 18:54 -27.47855 120.01138 35119 ft 534 kts 121°
2026-04-26 18:55 -27.51637 120.08284 35114 ft 530 kts 121°
2026-04-26 18:55 -27.55425 120.15452 35115 ft 530 kts 121°
2026-04-26 18:56 -27.59187 120.22581 35115 ft 530 kts 121°
2026-04-26 18:56 -27.62936 120.29698 35124 ft 531 kts 121°
2026-04-26 18:57 -27.66063 120.35644 35122 ft 529 kts 121°
2026-04-26 18:57 -27.70426 120.43955 35123 ft 531 kts 121°
2026-04-26 18:58 -27.74187 120.51130 35127 ft 528 kts 121°
2026-04-26 18:58 -27.77916 120.58255 35127 ft 531 kts 121°
2026-04-26 18:59 -27.81650 120.65404 35139 ft 527 kts 121°
2026-04-26 18:59 -27.85236 120.72651 35121 ft 531 kts 117°
2026-04-26 19:00 -27.88546 120.80054 35120 ft 529 kts 117°
2026-04-26 19:00 -27.91851 120.87472 35126 ft 529 kts 117°
2026-04-26 19:01 -27.95139 120.94863 35125 ft 529 kts 117°
2026-04-26 19:01 -27.98440 121.02296 35125 ft 530 kts 117°
2026-04-26 19:02 -28.01739 121.09737 35127 ft 529 kts 117°
2026-04-26 19:02 -28.04475 121.15919 35128 ft 527 kts 117°
2026-04-26 19:03 -28.08300 121.24577 35130 ft 528 kts 117°
2026-04-26 19:03 -28.11577 121.32008 35127 ft 527 kts 117°
2026-04-26 19:04 -28.14826 121.39390 35131 ft 527 kts 117°
2026-04-26 19:04 -28.18087 121.46814 35131 ft 528 kts 118°
2026-04-26 19:05 -28.22971 121.57956 35137 ft 527 kts 118°
2026-04-26 19:06 -28.26226 121.65399 35139 ft 526 kts 117°
2026-04-26 19:06 -28.29472 121.72832 35132 ft 527 kts 117°
2026-04-26 19:07 -28.32702 121.80246 35132 ft 526 kts 117°
2026-04-26 19:07 -28.35952 121.87719 35136 ft 526 kts 117°
2026-04-26 19:08 -28.39172 121.95138 35141 ft 528 kts 118°
2026-04-26 19:08 -28.42398 122.02584 35138 ft 528 kts 117°
2026-04-26 19:09 -28.45639 122.10079 35143 ft 528 kts 118°
2026-04-26 19:09 -28.48852 122.17522 35147 ft 528 kts 117°
2026-04-26 19:10 -28.52080 122.25013 35150 ft 527 kts 118°
2026-04-26 19:10 -28.55274 122.32441 35151 ft 526 kts 118°
2026-04-26 19:11 -28.58499 122.39955 35160 ft 529 kts 118°
2026-04-26 19:11 -28.61693 122.47409 35163 ft 525 kts 118°
2026-04-26 19:12 -28.64885 122.54873 35163 ft 525 kts 118°
2026-04-26 19:12 -28.68066 122.62326 35165 ft 525 kts 118°
2026-04-26 19:13 -28.71253 122.69807 35154 ft 525 kts 117°
2026-04-26 19:13 -28.74422 122.77261 35157 ft 522 kts 118°
2026-04-26 19:14 -28.77583 122.84712 35157 ft 523 kts 118°
2026-04-26 19:14 -28.80735 122.92152 35158 ft 523 kts 118°
2026-04-26 19:15 -28.83903 122.99644 35157 ft 524 kts 118°
2026-04-26 19:15 -28.87053 123.07110 35162 ft 523 kts 118°
2026-04-26 19:16 -28.90196 123.14571 35162 ft 522 kts 118°
2026-04-26 19:16 -28.93328 123.22022 35163 ft 521 kts 118°
2026-04-26 19:17 -28.96448 123.29458 35167 ft 521 kts 118°
2026-04-26 19:17 -28.99566 123.36903 35165 ft 522 kts 118°
2026-04-26 19:18 -29.02689 123.44376 35168 ft 522 kts 118°
2026-04-26 19:18 -29.05788 123.51805 35169 ft 519 kts 118°
2026-04-26 19:19 -29.08907 123.59297 35169 ft 520 kts 118°
2026-04-26 19:19 -29.12017 123.66780 35167 ft 521 kts 118°
2026-04-26 19:20 -29.15103 123.74225 35169 ft 517 kts 118°
2026-04-26 19:20 -29.18188 123.81676 35174 ft 520 kts 118°
2026-04-26 19:21 -29.21260 123.89113 35173 ft 518 kts 118°
2026-04-26 19:21 -29.24331 123.96559 35176 ft 519 kts 118°
2026-04-26 19:22 -29.27379 124.03967 35172 ft 516 kts 118°
2026-04-26 19:22 -29.30441 124.11422 35173 ft 517 kts 118°
2026-04-26 19:23 -29.33496 124.18873 35180 ft 518 kts 118°
2026-04-26 19:23 -29.36545 124.26325 35178 ft 516 kts 118°
2026-04-26 19:24 -29.39584 124.33766 35179 ft 519 kts 118°
2026-04-26 19:24 -29.44122 124.44907 35180 ft 518 kts 118°
2026-04-26 19:25 -29.46642 124.51107 35179 ft 517 kts 118°
2026-04-26 19:25 -29.50183 124.59840 35178 ft 516 kts 119°
2026-04-26 19:26 -29.53190 124.67269 35169 ft 516 kts 118°
2026-04-26 19:26 -29.56210 124.74747 35168 ft 516 kts 118°
2026-04-26 19:27 -29.59211 124.82188 35171 ft 517 kts 118°
2026-04-26 19:27 -29.62229 124.89690 35168 ft 517 kts 118°
2026-04-26 19:28 -29.65222 124.97147 35168 ft 514 kts 118°
2026-04-26 19:28 -29.68201 125.04581 35167 ft 515 kts 118°
2026-04-26 19:29 -29.71191 125.12054 35169 ft 514 kts 118°
2026-04-26 19:29 -29.74187 125.19560 35174 ft 517 kts 118°
2026-04-26 19:30 -29.77160 125.27024 35176 ft 514 kts 119°
2026-04-26 19:30 -29.79635 125.33266 35182 ft 517 kts 118°
2026-04-26 19:31 -29.83118 125.42027 35180 ft 515 kts 119°
2026-04-26 19:31 -29.86080 125.49522 35177 ft 515 kts 118°
2026-04-26 19:32 -29.89022 125.56973 35196 ft 513 kts 118°
2026-04-26 19:32 -29.91986 125.64456 35187 ft 514 kts 119°
2026-04-26 19:33 -29.94934 125.71947 35182 ft 513 kts 118°
2026-04-26 19:33 -29.97881 125.79440 35189 ft 514 kts 118°
2026-04-26 19:34 -30.00793 125.86920 35199 ft 514 kts 118°
2026-04-26 19:34 -30.03730 125.94398 35202 ft 511 kts 118°
2026-04-26 19:35 -30.06664 126.01885 35210 ft 513 kts 118°
2026-04-26 19:35 -30.09567 126.09367 35204 ft 512 kts 118°
2026-04-26 19:36 -30.12004 126.15577 35206 ft 511 kts 118°
2026-04-26 19:36 -30.15362 126.24277 35208 ft 510 kts 118°
2026-04-26 19:37 -30.18248 126.31775 35201 ft 511 kts 118°
2026-04-26 19:37 -30.21137 126.39269 35208 ft 509 kts 119°
2026-04-26 19:38 -30.24028 126.46744 35199 ft 510 kts 119°
2026-04-26 19:38 -30.26889 126.54218 35212 ft 509 kts 118°
2026-04-26 19:39 -30.29756 126.61648 35201 ft 507 kts 119°
2026-04-26 19:39 -30.32625 126.69154 35199 ft 510 kts 118°
2026-04-26 19:40 -30.35478 126.76621 35202 ft 509 kts 118°
2026-04-26 19:40 -30.38335 126.84077 35198 ft 508 kts 118°
2026-04-26 19:41 -30.41192 126.91560 35204 ft 509 kts 118°
2026-04-26 19:41 -30.43541 126.97787 35197 ft 509 kts 118°
2026-04-26 19:42 -30.46864 127.06561 35204 ft 506 kts 119°
2026-04-26 19:42 -30.49713 127.13967 35215 ft 508 kts 118°
2026-04-26 19:43 -30.52541 127.21502 35216 ft 507 kts 118°
2026-04-26 19:43 -30.55353 127.28975 35215 ft 509 kts 119°
2026-04-26 19:44 -30.58173 127.36475 35207 ft 506 kts 119°
2026-04-26 19:44 -30.60954 127.43918 35222 ft 507 kts 119°
2026-04-26 19:45 -30.63769 127.51388 35213 ft 505 kts 119°
2026-04-26 19:45 -30.66578 127.58890 35208 ft 507 kts 119°
2026-04-26 19:46 -30.69360 127.66315 35219 ft 502 kts 119°
2026-04-26 19:46 -30.72122 127.73810 35210 ft 507 kts 118°
2026-04-26 19:47 -30.74437 127.80071 35218 ft 505 kts 119°
2026-04-26 19:47 -30.77656 127.88743 35216 ft 501 kts 118°
2026-04-26 19:48 -30.80424 127.96220 35211 ft 502 kts 118°
2026-04-26 19:48 -30.83168 128.03709 35236 ft 500 kts 119°
2026-04-26 19:49 -30.85719 128.11230 35226 ft 505 kts 112°
2026-04-26 19:49 -30.87754 128.19101 35222 ft 508 kts 111°
2026-04-26 19:50 -30.89739 128.26959 35218 ft 506 kts 112°
2026-04-26 19:50 -30.91704 128.34808 35216 ft 509 kts 112°
2026-04-26 19:51 -30.93674 128.42696 35221 ft 507 kts 112°
2026-04-26 19:51 -30.95644 128.50581 35226 ft 505 kts 112°
2026-04-26 19:52 -30.97592 128.58478 35229 ft 507 kts 113°
2026-04-26 19:52 -30.99534 128.66370 35235 ft 506 kts 112°
2026-04-26 19:53 -31.01457 128.74223 35217 ft 509 kts 112°
2026-04-26 19:53 -31.03391 128.82129 35222 ft 506 kts 112°
2026-04-26 19:54 -31.05310 128.89954 35226 ft 509 kts 112°
2026-04-26 19:54 -31.07237 128.97856 35235 ft 506 kts 113°
2026-04-26 19:55 -31.09116 129.05748 35238 ft 503 kts 112°
2026-04-26 19:55 -31.11010 129.13592 35239 ft 503 kts 112°
2026-04-26 19:56 -31.12898 129.21426 35244 ft 504 kts 112°
2026-04-26 19:56 -31.14792 129.29268 35259 ft 501 kts 112°
2026-04-26 19:57 -31.16691 129.37135 35243 ft 506 kts 112°
2026-04-26 19:57 -31.18562 129.45003 35244 ft 501 kts 113°
2026-04-26 19:58 -31.20433 129.52834 35233 ft 502 kts 113°
2026-04-26 19:58 -31.22309 129.60657 35246 ft 502 kts 113°
2026-04-26 19:59 -31.24165 129.68481 35228 ft 499 kts 112°
2026-04-26 19:59 -31.26019 129.76321 35226 ft 502 kts 112°
2026-04-26 20:00 -31.27865 129.84135 35248 ft 502 kts 112°
2026-04-26 20:00 -31.29726 129.92006 35239 ft 499 kts 112°
2026-04-26 20:01 -31.31547 129.99782 35246 ft 500 kts 112°
2026-04-26 20:01 -31.33385 130.07654 35244 ft 498 kts 112°
2026-04-26 20:02 -31.35198 130.15431 35245 ft 499 kts 112°
2026-04-26 20:02 -31.36709 130.21936 35239 ft 498 kts 112°
2026-04-26 20:03 -31.38807 130.30989 35237 ft 499 kts 112°
2026-04-26 20:03 -31.40612 130.38809 35231 ft 496 kts 112°
2026-04-26 20:04 -31.42398 130.46562 35236 ft 497 kts 112°
2026-04-26 20:04 -31.44193 130.54376 35234 ft 496 kts 112°
2026-04-26 20:05 -31.45977 130.62175 35233 ft 496 kts 112°
2026-04-26 20:05 -31.47739 130.69902 35224 ft 492 kts 111°
2026-04-26 20:06 -31.49515 130.77701 35221 ft 495 kts 111°
2026-04-26 20:06 -31.51267 130.85425 35219 ft 493 kts 112°
2026-04-26 20:07 -31.53025 130.93190 35220 ft 497 kts 111°
2026-04-26 20:07 -31.54769 131.00946 35222 ft 489 kts 111°
2026-04-26 20:08 -31.56505 131.08662 35222 ft 493 kts 111°
2026-04-26 20:08 -31.58244 131.16426 35221 ft 493 kts 111°
2026-04-26 20:09 -31.59976 131.24182 35224 ft 492 kts 111°
2026-04-26 20:09 -31.61696 131.31914 35222 ft 494 kts 111°
2026-04-26 20:10 -31.63415 131.39661 35218 ft 491 kts 110°
2026-04-26 20:10 -31.65130 131.47411 35221 ft 492 kts 111°
2026-04-26 20:11 -31.66837 131.55151 35225 ft 492 kts 110°
2026-04-26 20:12 -31.69397 131.66803 35219 ft 492 kts 110°
2026-04-26 20:12 -31.71102 131.74594 35218 ft 492 kts 109°
2026-04-26 20:13 -31.72790 131.82336 35217 ft 492 kts 110°
2026-04-26 20:13 -31.74485 131.90128 35223 ft 495 kts 109°
2026-04-26 20:14 -31.76177 131.97934 35230 ft 491 kts 109°
2026-04-26 20:14 -31.77849 132.05673 35226 ft 491 kts 109°
2026-04-26 20:15 -31.79529 132.13464 35224 ft 495 kts 109°
2026-04-26 20:15 -31.81206 132.21281 35228 ft 494 kts 108°
2026-04-26 20:16 -31.82885 132.29129 35230 ft 495 kts 108°
2026-04-26 20:16 -31.84548 132.36923 35236 ft 496 kts 108°
2026-04-26 20:17 -31.86223 132.44800 35247 ft 497 kts 108°
2026-04-26 20:17 -31.87888 132.52657 35247 ft 497 kts 108°
2026-04-26 20:18 -31.89542 132.60494 35241 ft 494 kts 107°
2026-04-26 20:18 -31.91199 132.68358 35241 ft 497 kts 106°
2026-04-26 20:19 -31.92856 132.76253 35241 ft 497 kts 106°
2026-04-26 20:19 -31.94501 132.84119 35238 ft 496 kts 105°
2026-04-26 20:20 -31.96144 132.92000 35243 ft 496 kts 105°
2026-04-26 20:20 -31.97774 132.99843 35240 ft 495 kts 105°
2026-04-26 20:21 -31.99408 133.07732 35239 ft 494 kts 105°
2026-04-26 20:21 -32.01020 133.15546 35238 ft 494 kts 105°
2026-04-26 20:22 -32.02642 133.23430 35238 ft 495 kts 105°
2026-04-26 20:22 -32.04245 133.31245 35239 ft 494 kts 105°
2026-04-26 20:23 -32.05851 133.39102 35239 ft 494 kts 105°
2026-04-26 20:23 -32.07463 133.47020 35240 ft 495 kts 105°
2026-04-26 20:24 -32.09050 133.54840 35241 ft 496 kts 105°
2026-04-26 20:24 -32.10649 133.62743 35243 ft 494 kts 105°
2026-04-26 20:25 -32.12236 133.70618 35239 ft 494 kts 104°
2026-04-26 20:25 -32.14038 133.78378 35242 ft 494 kts 109°
2026-04-26 20:26 -32.16116 133.86090 35243 ft 494 kts 109°
2026-04-26 20:26 -32.18162 133.93780 35242 ft 493 kts 108°
2026-04-26 20:27 -32.20197 134.01498 35246 ft 493 kts 108°
2026-04-26 20:27 -32.22223 134.09230 35244 ft 493 kts 108°
2026-04-26 20:28 -32.24234 134.16943 35246 ft 493 kts 108°
2026-04-26 20:28 -32.26239 134.24663 35246 ft 493 kts 108°
2026-04-26 20:29 -32.28236 134.32373 35244 ft 492 kts 108°
2026-04-26 20:29 -32.30230 134.40099 35245 ft 493 kts 109°
2026-04-26 20:30 -32.32220 134.47836 35248 ft 492 kts 109°
2026-04-26 20:30 -32.34204 134.55568 35246 ft 492 kts 109°
2026-04-26 20:31 -32.36180 134.63292 35250 ft 492 kts 109°
2026-04-26 20:31 -32.38159 134.71051 35244 ft 492 kts 108°
2026-04-26 20:32 -32.40114 134.78737 35243 ft 491 kts 108°
2026-04-26 20:32 -32.42073 134.86461 35237 ft 491 kts 108°
2026-04-26 20:33 -32.44038 134.94229 35235 ft 492 kts 108°
2026-04-26 20:33 -32.45979 135.01924 35233 ft 491 kts 108°
2026-04-26 20:34 -32.47925 135.09662 35236 ft 492 kts 108°
2026-04-26 20:34 -32.49860 135.17383 35231 ft 489 kts 108°
2026-04-26 20:35 -32.51797 135.25130 35235 ft 490 kts 108°
2026-04-26 20:35 -32.53717 135.32831 35231 ft 490 kts 109°
2026-04-26 20:36 -32.55641 135.40567 35233 ft 490 kts 109°
2026-04-26 20:36 -32.57559 135.48306 35223 ft 490 kts 109°
2026-04-26 20:37 -32.59472 135.56045 35216 ft 491 kts 109°
2026-04-26 20:37 -32.61372 135.63753 35218 ft 490 kts 109°
2026-04-26 20:38 -32.63281 135.71523 35213 ft 490 kts 108°
2026-04-26 20:38 -32.65174 135.79279 35213 ft 490 kts 108°
2026-04-26 20:39 -32.67049 135.87021 35208 ft 489 kts 108°
2026-04-26 20:39 -32.68915 135.94746 35211 ft 489 kts 108°
2026-04-26 20:40 -32.70785 136.02508 35210 ft 489 kts 108°
2026-04-26 20:40 -32.72642 136.10242 35222 ft 489 kts 108°
2026-04-26 20:41 -32.74493 136.17973 35224 ft 488 kts 108°
2026-04-26 20:41 -32.76344 136.25722 35225 ft 488 kts 108°
2026-04-26 20:42 -32.78186 136.33460 35223 ft 488 kts 108°
2026-04-26 20:42 -32.80020 136.41190 35222 ft 488 kts 109°
2026-04-26 20:43 -32.81844 136.48898 35223 ft 488 kts 108°
2026-04-26 20:43 -32.83674 136.56650 35221 ft 487 kts 109°
2026-04-26 20:44 -32.85489 136.64371 35222 ft 487 kts 109°
2026-04-26 20:44 -32.87303 136.72105 35216 ft 486 kts 108°
2026-04-26 20:45 -32.89118 136.79871 35216 ft 487 kts 108°
2026-04-26 20:45 -32.90913 136.87572 35212 ft 486 kts 108°
2026-04-26 20:46 -32.92716 136.95334 35213 ft 485 kts 108°
2026-04-26 20:46 -32.94497 137.03021 35215 ft 486 kts 108°
2026-04-26 20:47 -32.96282 137.10751 35213 ft 486 kts 108°
2026-04-26 20:47 -32.98063 137.18486 35214 ft 484 kts 109°
2026-04-26 20:48 -32.99836 137.26211 35217 ft 484 kts 109°
2026-04-26 20:48 -33.01597 137.33907 35215 ft 483 kts 109°
2026-04-26 20:49 -33.03346 137.41574 35215 ft 483 kts 109°
2026-04-26 20:49 -33.05100 137.49286 35220 ft 482 kts 109°
2026-04-26 20:50 -33.06726 137.57010 35219 ft 483 kts 106°
2026-04-26 20:50 -33.08128 137.64851 35221 ft 484 kts 106°
2026-04-26 20:51 -33.09528 137.72656 35216 ft 484 kts 105°
2026-04-26 20:51 -33.10922 137.80414 35224 ft 483 kts 105°
2026-04-26 20:52 -33.12326 137.88228 35225 ft 482 kts 106°
2026-04-26 20:52 -33.13722 137.96005 35225 ft 481 kts 106°
2026-04-26 20:53 -33.15117 138.03801 35222 ft 480 kts 106°
2026-04-26 20:53 -33.16503 138.11568 35229 ft 481 kts 106°
2026-04-26 20:54 -33.17886 138.19351 35231 ft 481 kts 106°
2026-04-26 20:54 -33.19266 138.27138 35234 ft 481 kts 106°
2026-04-26 20:55 -33.20639 138.34923 35239 ft 481 kts 106°
2026-04-26 20:55 -33.22005 138.42693 35242 ft 480 kts 106°
2026-04-26 20:56 -33.23374 138.50510 35243 ft 480 kts 106°
2026-04-26 20:56 -33.24727 138.58270 35247 ft 480 kts 107°
2026-04-26 20:57 -33.26080 138.66054 35253 ft 479 kts 106°
2026-04-26 20:57 -33.27425 138.73825 35252 ft 479 kts 106°
2026-04-26 20:58 -33.28770 138.81625 35253 ft 477 kts 106°
2026-04-26 20:58 -33.30098 138.89355 35256 ft 479 kts 106°
2026-04-26 20:59 -33.31428 138.97137 35262 ft 479 kts 106°
2026-04-26 20:59 -33.32707 139.04642 35259 ft 479 kts 107°
2026-04-26 21:00 -33.34035 139.12459 35260 ft 478 kts 107°
2026-04-26 21:00 -33.35342 139.20192 35263 ft 476 kts 107°
2026-04-26 21:01 -33.36655 139.27988 35262 ft 477 kts 107°
2026-04-26 21:01 -33.37947 139.35693 35263 ft 476 kts 107°
2026-04-26 21:02 -33.39233 139.43448 35265 ft 476 kts 106°
2026-04-26 21:02 -33.40459 139.51251 35263 ft 476 kts 107°
2026-04-26 21:03 -33.41669 139.58990 35265 ft 477 kts 107°
2026-04-26 21:03 -33.42888 139.66812 35265 ft 476 kts 106°
2026-04-26 21:04 -33.44094 139.74577 35264 ft 476 kts 106°
2026-04-26 21:04 -33.45293 139.82324 35263 ft 476 kts 106°
2026-04-26 21:05 -33.46485 139.90097 35271 ft 474 kts 107°
2026-04-26 21:05 -33.47677 139.97850 35263 ft 476 kts 107°
2026-04-26 21:06 -33.48858 140.05621 35253 ft 476 kts 107°
2026-04-26 21:06 -33.50016 140.13362 35260 ft 473 kts 107°
2026-04-26 21:07 -33.51209 140.21077 35241 ft 472 kts 107°
2026-04-26 21:07 -33.52372 140.28816 35250 ft 473 kts 107°
2026-04-26 21:08 -33.53550 140.36531 35247 ft 472 kts 107°
2026-04-26 21:08 -33.54698 140.44260 35250 ft 472 kts 107°
2026-04-26 21:09 -33.55868 140.52006 35243 ft 472 kts 107°
2026-04-26 21:09 -33.57010 140.59688 35260 ft 471 kts 107°
2026-04-26 21:10 -33.58149 140.67462 35236 ft 470 kts 107°
2026-04-26 21:10 -33.59298 140.75180 35245 ft 469 kts 107°
2026-04-26 21:11 -33.60386 140.82873 35252 ft 467 kts 107°
2026-04-26 21:11 -33.61513 140.90521 35233 ft 469 kts 107°
2026-04-26 21:12 -33.62597 140.98202 35229 ft 470 kts 107°
2026-04-26 21:12 -33.63703 141.05884 35230 ft 468 kts 107°
2026-04-26 21:13 -33.64829 141.13580 35231 ft 468 kts 107°
2026-04-26 21:13 -33.65933 141.21242 35228 ft 466 kts 107°
2026-04-26 21:14 -33.67024 141.28896 35225 ft 466 kts 107°
2026-04-26 21:14 -33.68097 141.36556 35239 ft 467 kts 107°
2026-04-26 21:15 -33.69181 141.44209 35240 ft 467 kts 107°
2026-04-26 21:15 -33.70258 141.51883 35246 ft 466 kts 106°
2026-04-26 21:16 -33.71305 141.59543 35227 ft 468 kts 107°
2026-04-26 21:16 -33.72403 141.67197 35231 ft 469 kts 106°
2026-04-26 21:17 -33.73455 141.74896 35236 ft 467 kts 106°
2026-04-26 21:17 -33.74503 141.82573 35232 ft 467 kts 105°
2026-04-26 21:18 -33.75568 141.90256 35226 ft 467 kts 105°
2026-04-26 21:18 -33.76608 141.97960 35227 ft 468 kts 105°
2026-04-26 21:19 -33.77668 142.05627 35209 ft 464 kts 106°
2026-04-26 21:19 -33.78713 142.13292 35213 ft 466 kts 105°
2026-04-26 21:20 -33.79758 142.20941 35218 ft 465 kts 105°
2026-04-26 21:20 -33.80767 142.28627 35212 ft 465 kts 105°
2026-04-26 21:21 -33.81792 142.36343 35217 ft 465 kts 106°
2026-04-26 21:21 -33.82820 142.44060 35214 ft 468 kts 105°
2026-04-26 21:22 -33.83819 142.51726 35213 ft 465 kts 105°
2026-04-26 21:22 -33.84826 142.59450 35216 ft 469 kts 105°
2026-04-26 21:23 -33.86321 142.71008 35213 ft 468 kts 105°
2026-04-26 21:23 -33.87313 142.78719 35214 ft 467 kts 105°
2026-04-26 21:24 -33.88301 142.86423 35215 ft 467 kts 104°
2026-04-26 21:24 -33.89287 142.94151 35216 ft 467 kts 105°
2026-04-26 21:25 -33.90262 143.01831 35216 ft 467 kts 105°
2026-04-26 21:25 -33.91241 143.09575 35212 ft 469 kts 105°
2026-04-26 21:26 -33.92211 143.17302 35214 ft 467 kts 105°
2026-04-26 21:26 -33.93174 143.25011 35213 ft 467 kts 105°
2026-04-26 21:27 -33.94133 143.32715 35215 ft 469 kts 105°
2026-04-26 21:27 -33.95088 143.40439 35213 ft 466 kts 105°
2026-04-26 21:28 -33.96037 143.48145 35213 ft 469 kts 105°
2026-04-26 21:28 -33.96984 143.55885 35214 ft 468 kts 105°
2026-04-26 21:29 -33.97927 143.63621 35220 ft 470 kts 105°
2026-04-26 21:29 -33.98868 143.71393 35228 ft 470 kts 104°
2026-04-26 21:30 -33.99805 143.79150 35232 ft 470 kts 104°
2026-04-26 21:30 -34.00738 143.86946 35230 ft 467 kts 104°
2026-04-26 21:31 -34.01661 143.94705 35234 ft 467 kts 104°
2026-04-26 21:31 -34.02578 144.02444 35235 ft 468 kts 104°
2026-04-26 21:32 -34.03489 144.10173 35240 ft 468 kts 104°
2026-04-26 21:32 -34.04406 144.18002 35233 ft 470 kts 104°
2026-04-26 21:33 -34.05304 144.25763 35233 ft 471 kts 104°
2026-04-26 21:33 -34.06206 144.33530 35236 ft 471 kts 104°
2026-04-26 21:34 -34.07109 144.41347 35236 ft 472 kts 104°
2026-04-26 21:34 -34.08008 144.49191 35229 ft 470 kts 104°
2026-04-26 21:35 -34.08894 144.56957 35242 ft 472 kts 104°
2026-04-26 21:35 -34.09781 144.64798 35234 ft 472 kts 104°
2026-04-26 21:36 -34.10515 144.71310 35247 ft 473 kts 103°
2026-04-26 21:36 -34.11541 144.80466 35249 ft 472 kts 103°
2026-04-26 21:37 -34.12414 144.88313 35245 ft 474 kts 103°
2026-04-26 21:37 -34.13283 144.96168 35244 ft 473 kts 103°
2026-04-26 21:38 -34.14148 145.04038 35247 ft 473 kts 103°
2026-04-26 21:38 -34.15008 145.11902 35244 ft 475 kts 103°
2026-04-26 21:39 -34.15861 145.19751 35246 ft 475 kts 103°
2026-04-26 21:39 -34.16718 145.27684 35247 ft 479 kts 102°
2026-04-26 21:40 -34.17569 145.35626 35249 ft 478 kts 102°
2026-04-26 21:40 -34.18413 145.43533 35249 ft 478 kts 102°
2026-04-26 21:41 -34.19257 145.51495 35247 ft 479 kts 102°
2026-04-26 21:41 -34.20097 145.59477 35246 ft 479 kts 102°
2026-04-26 21:42 -34.20931 145.67439 35252 ft 480 kts 101°
2026-04-26 21:42 -34.21763 145.75446 35248 ft 481 kts 101°
2026-04-26 21:43 -34.22588 145.83431 35248 ft 482 kts 101°
2026-04-26 21:43 -34.23411 145.91452 35251 ft 482 kts 100°
2026-04-26 21:44 -34.24228 145.99463 35256 ft 483 kts 100°
2026-04-26 21:44 -34.25042 146.07486 35243 ft 483 kts 101°
2026-04-26 21:45 -34.26288 146.15422 35249 ft 481 kts 104°
2026-04-26 21:45 -34.27599 146.23305 35248 ft 482 kts 104°
2026-04-26 21:46 -34.28898 146.31274 35247 ft 483 kts 104°
2026-04-26 21:46 -34.30181 146.39238 35251 ft 484 kts 104°
2026-04-26 21:47 -34.31453 146.47206 35252 ft 484 kts 104°
2026-04-26 21:47 -34.32716 146.55168 35257 ft 483 kts 103°
2026-04-26 21:48 -34.33976 146.63164 35254 ft 485 kts 103°
2026-04-26 21:48 -34.35243 146.71242 35248 ft 486 kts 103°
2026-04-26 21:49 -34.36487 146.79211 35261 ft 485 kts 103°
2026-04-26 21:49 -34.37733 146.87233 35265 ft 485 kts 103°
2026-04-26 21:50 -34.38767 146.93916 35265 ft 486 kts 102°
2026-04-26 21:50 -34.40215 147.03322 35265 ft 486 kts 102°
2026-04-26 21:51 -34.41447 147.11365 35265 ft 486 kts 102°
2026-04-26 21:51 -34.42674 147.19402 35267 ft 486 kts 102°
2026-04-26 21:52 -34.43901 147.27487 35277 ft 486 kts 102°
2026-04-26 21:52 -34.45119 147.35553 35282 ft 487 kts 102°
2026-04-26 21:53 -34.46331 147.43610 35279 ft 488 kts 102°
2026-04-26 21:53 -34.47544 147.51706 35276 ft 488 kts 102°
2026-04-26 21:54 -34.48762 147.59883 35276 ft 488 kts 102°
2026-04-26 21:54 -34.49963 147.67978 35275 ft 490 kts 101°
2026-04-26 21:55 -34.51162 147.76100 35275 ft 489 kts 101°
2026-04-26 21:55 -34.52351 147.84201 35280 ft 489 kts 101°
2026-04-26 21:56 -34.53532 147.92279 35275 ft 490 kts 101°
2026-04-26 21:56 -34.54716 148.00415 35286 ft 489 kts 101°
2026-04-26 21:57 -34.55888 148.08510 35284 ft 489 kts 101°
2026-04-26 21:57 -34.57057 148.16626 35283 ft 488 kts 101°
2026-04-26 21:58 -34.58222 148.24751 35287 ft 489 kts 101°
2026-04-26 21:58 -34.59378 148.32854 35289 ft 489 kts 101°
2026-04-26 21:59 -34.60529 148.40961 35287 ft 489 kts 101°
2026-04-26 21:59 -34.61682 148.49120 35286 ft 487 kts 101°
2026-04-26 22:00 -34.62821 148.57224 35288 ft 486 kts 101°
2026-04-26 22:00 -34.63953 148.65314 35288 ft 486 kts 100°
2026-04-26 22:01 -34.65082 148.73428 35286 ft 487 kts 100°
2026-04-26 22:01 -34.65640 148.77454 35078 ft 490 kts 100°
2026-04-26 22:01 -34.66205 148.81534 34591 ft 492 kts 100°
2026-04-26 22:02 -34.66773 148.85655 34090 ft 492 kts 100°
2026-04-26 22:02 -34.67149 148.88384 33761 ft 491 kts 99°
2026-04-26 22:02 -34.67898 148.93835 33104 ft 491 kts 99°
2026-04-26 22:02 -34.68456 148.97910 32613 ft 491 kts 99°
2026-04-26 22:03 -34.69018 149.02034 32145 ft 489 kts 99°
2026-04-26 22:03 -34.69565 149.06050 31727 ft 482 kts 99°
2026-04-26 22:03 -34.70106 149.10028 31157 ft 477 kts 99°
2026-04-26 22:03 -34.70645 149.14012 30562 ft 473 kts 99°
2026-04-26 22:04 -34.71171 149.17900 30027 ft 469 kts 98°
2026-04-26 22:04 -34.71694 149.21780 29499 ft 464 kts 98°
2026-04-26 22:04 -34.72210 149.25612 28913 ft 461 kts 98°
2026-04-26 22:04 -34.72722 149.29425 28301 ft 458 kts 98°
2026-04-26 22:05 -34.73080 149.33261 27694 ft 453 kts 91°
2026-04-26 22:05 -34.72967 149.36998 27091 ft 447 kts 82°
2026-04-26 22:05 -34.72390 149.40677 26473 ft 442 kts 73°
2026-04-26 22:05 -34.71372 149.44176 25866 ft 437 kts 65°
2026-04-26 22:06 -34.70063 149.47469 25263 ft 432 kts 63°
2026-04-26 22:06 -34.68721 149.50708 24713 ft 427 kts 62°
2026-04-26 22:06 -34.67376 149.53909 24128 ft 423 kts 62°
2026-04-26 22:06 -34.66043 149.57048 23540 ft 419 kts 62°
2026-04-26 22:07 -34.64701 149.60178 22960 ft 414 kts 62°
2026-04-26 22:07 -34.63371 149.63260 22364 ft 411 kts 61°
2026-04-26 22:07 -34.62053 149.66301 21768 ft 408 kts 61°
2026-04-26 22:07 -34.60748 149.69299 21194 ft 404 kts 61°
2026-04-26 22:08 -34.59439 149.72296 20617 ft 400 kts 61°
2026-04-26 22:08 -34.58149 149.75243 20050 ft 396 kts 60°
2026-04-26 22:08 -34.56849 149.78209 19464 ft 393 kts 61°
2026-04-26 22:08 -34.55580 149.81096 18894 ft 390 kts 60°
2026-04-26 22:09 -34.54319 149.83964 18472 ft 382 kts 61°
2026-04-26 22:09 -34.53084 149.86769 18339 ft 367 kts 61°
2026-04-26 22:09 -34.51919 149.89414 18294 ft 350 kts 61°
2026-04-26 22:09 -34.50805 149.91940 18272 ft 334 kts 61°
2026-04-26 22:10 -34.49726 149.94385 18271 ft 319 kts 61°
2026-04-26 22:10 -34.48698 149.96710 18144 ft 309 kts 61°
2026-04-26 22:10 -34.47690 149.98987 17818 ft 308 kts 61°
2026-04-26 22:10 -34.46685 150.01257 17500 ft 307 kts 61°
2026-04-26 22:11 -34.45680 150.03525 17123 ft 305 kts 61°
2026-04-26 22:11 -34.44677 150.05788 16744 ft 303 kts 61°
2026-04-26 22:11 -34.43688 150.08019 16367 ft 301 kts 61°
2026-04-26 22:11 -34.42699 150.10248 15984 ft 299 kts 62°
2026-04-26 22:12 -34.41719 150.12454 15582 ft 297 kts 62°
2026-04-26 22:12 -34.40743 150.14648 15180 ft 296 kts 62°
2026-04-26 22:12 -34.39776 150.16824 14783 ft 294 kts 62°
2026-04-26 22:12 -34.38808 150.18999 14387 ft 293 kts 62°
2026-04-26 22:13 -34.37849 150.21153 14003 ft 292 kts 62°
2026-04-26 22:13 -34.36884 150.23320 13638 ft 290 kts 62°
2026-04-26 22:13 -34.35930 150.25459 13292 ft 289 kts 62°
2026-04-26 22:13 -34.34971 150.27609 12947 ft 288 kts 62°
2026-04-26 22:14 -34.34031 150.29717 12607 ft 287 kts 62°
2026-04-26 22:14 -34.33087 150.31828 12268 ft 287 kts 62°
2026-04-26 22:14 -34.32137 150.33955 11954 ft 284 kts 62°
2026-04-26 22:14 -34.31217 150.36011 11835 ft 275 kts 62°
2026-04-26 22:15 -34.30307 150.38046 11556 ft 273 kts 62°
2026-04-26 22:15 -34.29407 150.40057 11231 ft 272 kts 62°
2026-04-26 22:15 -34.28508 150.42064 10921 ft 271 kts 62°
2026-04-26 22:15 -34.27611 150.44066 10614 ft 270 kts 63°
2026-04-26 22:16 -34.26724 150.46053 10316 ft 269 kts 63°
2026-04-26 22:16 -34.25833 150.48048 10016 ft 268 kts 63°
2026-04-26 22:16 -34.24954 150.50014 9720 ft 267 kts 63°
2026-04-26 22:16 -34.24075 150.51979 9423 ft 265 kts 63°
2026-04-26 22:17 -34.23200 150.53934 9128 ft 264 kts 63°
2026-04-26 22:17 -34.22334 150.55867 8837 ft 263 kts 63°
2026-04-26 22:17 -34.21466 150.57803 8546 ft 261 kts 63°
2026-04-26 22:17 -34.20598 150.59740 8257 ft 260 kts 63°
2026-04-26 22:18 -34.19733 150.61667 7969 ft 259 kts 63°
2026-04-26 22:18 -34.18886 150.63553 7689 ft 258 kts 63°
2026-04-26 22:18 -34.18025 150.65471 7403 ft 257 kts 62°
2026-04-26 22:18 -34.17182 150.67346 7127 ft 256 kts 62°
2026-04-26 22:19 -34.16340 150.69217 7023 ft 250 kts 62°
2026-04-26 22:19 -34.15514 150.71053 7013 ft 246 kts 62°
2026-04-26 22:19 -34.14716 150.72824 6992 ft 236 kts 62°
2026-04-26 22:19 -34.13942 150.74532 6748 ft 231 kts 62°
2026-04-26 22:20 -34.13167 150.76250 6409 ft 231 kts 63°
2026-04-26 22:20 -34.12661 150.77383 6198 ft 230 kts 63°
2026-04-26 22:20 -34.11648 150.79625 5773 ft 229 kts 63°
2026-04-26 22:20 -34.10892 150.81303 5460 ft 227 kts 63°
2026-04-26 22:21 -34.10076 150.82935 5133 ft 227 kts 52°
2026-04-26 22:21 -34.09031 150.84341 4833 ft 225 kts 48°
2026-04-26 22:21 -34.07997 150.85677 4769 ft 212 kts 47°
2026-04-26 22:21 -34.06989 150.86963 4534 ft 207 kts 47°
2026-04-26 22:22 -34.06028 150.88196 4389 ft 196 kts 47°
2026-04-26 22:22 -34.05096 150.89397 4101 ft 194 kts 47°
2026-04-26 22:22 -34.04187 150.90564 3809 ft 193 kts 47°
2026-04-26 22:22 -34.03270 150.91736 3515 ft 191 kts 47°
2026-04-26 22:23 -34.02362 150.92909 3217 ft 190 kts 46°
2026-04-26 22:23 -34.01471 150.94054 3023 ft 185 kts 46°
2026-04-26 22:23 -34.00569 150.95210 3006 ft 188 kts 46°
2026-04-26 22:23 -33.99700 150.96324 2999 ft 178 kts 45°
2026-04-26 22:24 -33.98893 150.97404 2818 ft 171 kts 55°
2026-04-26 22:24 -33.98436 150.98737 2381 ft 174 kts 71°
2026-04-26 22:24 -33.98111 151.00120 2055 ft 170 kts 73°
2026-04-26 22:24 -33.97803 151.01500 2011 ft 173 kts 73°
2026-04-26 22:25 -33.97508 151.02911 2000 ft 173 kts 78°
2026-04-26 22:25 -33.97264 151.04301 1893 ft 172 kts 72°
2026-04-26 22:25 -33.96917 151.05679 1717 ft 172 kts 72°
2026-04-26 22:25 -33.96583 151.07072 1614 ft 171 kts 72°
2026-04-26 22:26 -33.96251 151.08473 1431 ft 174 kts 72°
2026-04-26 22:26 -33.95921 151.09860 1193 ft 170 kts 72°
2026-04-26 22:26 -33.95605 151.11194 964 ft 161 kts 72°
2026-04-26 22:26 -33.95298 151.12486 741 ft 161 kts 72°
2026-04-26 22:27 -33.94992 151.13777 516 ft 158 kts 72°
2026-04-26 22:27 -33.94691 151.15047 302 ft 156 kts 72°
2026-04-26 22:27 -33.94392 151.16304 83 ft 156 kts 70°
2026-04-26 22:27 -33.94115 151.17453 35 ft 122 kts 74°
2026-04-26 22:28 -33.93933 151.18237 35 ft 69 kts 76°
2026-04-26 22:28 -33.93838 151.18633 35 ft 41 kts 74°
2026-04-26 22:28 -33.93769 151.18822 35 ft 18 kts 24°
2026-04-26 22:28 -33.93683 151.18819 35 ft 6 kts 345°
2026-04-26 22:29 -33.93642 151.18803 35 ft 5 kts 333°
2026-04-26 22:29 -33.93618 151.18762 35 ft 6 kts 284°
2026-04-26 22:29 -33.93622 151.18701 35 ft 8 kts 253°
2026-04-26 22:29 -33.93639 151.18633 35 ft 9 kts 254°
2026-04-26 22:30 -33.93656 151.18556 35 ft 9 kts 254°
2026-04-26 22:30 -33.93676 151.18472 35 ft 10 kts 255°
2026-04-26 22:30 -33.93696 151.18385 35 ft 10 kts 253°
2026-04-26 22:30 -33.93717 151.18301 35 ft 10 kts 254°
2026-04-26 22:31 -33.93737 151.18214 35 ft 11 kts 255°
2026-04-26 22:31 -33.93759 151.18123 35 ft 11 kts 254°
2026-04-26 22:31 -33.93783 151.18022 35 ft 13 kts 254°
2026-04-26 22:31 -33.93808 151.17914 35 ft 14 kts 255°
2026-04-26 22:32 -33.93835 151.17798 35 ft 14 kts 255°
2026-04-26 22:32 -33.93864 151.17674 35 ft 15 kts 254°
2026-04-26 22:32 -33.93884 151.17590 35 ft 3 kts 253°
2026-04-26 22:32 -33.93889 151.17570 35 ft 0 kts 253°
2026-04-26 22:33 -33.93890 151.17566 35 ft 0 kts 253°
2026-04-26 22:33 -33.93890 151.17564 35 ft 0 kts 253°
2026-04-26 22:34 -33.93895 151.17549 35 ft 2 kts 253°
2026-04-26 22:34 -33.93896 151.17545 35 ft 0 kts 253°
2026-04-26 22:35 -33.93897 151.17541 35 ft 2 kts 253°
2026-04-26 22:35 -33.93909 151.17491 35 ft 8 kts 253°
2026-04-26 22:35 -33.93926 151.17421 35 ft 8 kts 253°
2026-04-26 22:35 -33.93942 151.17349 35 ft 10 kts 255°
2026-04-26 22:36 -33.93962 151.17261 35 ft 11 kts 255°
2026-04-26 22:36 -33.93983 151.17172 35 ft 11 kts 258°
2026-04-26 22:36 -33.93941 151.17104 35 ft 11 kts 343°
2026-04-26 22:36 -33.93865 151.17081 35 ft 10 kts 347°
2026-04-26 22:37 -33.93800 151.17064 35 ft 8 kts 348°
2026-04-26 22:37 -33.93739 151.17049 35 ft 7 kts 345°
2026-04-26 22:37 -33.93721 151.17024 35 ft 3 kts 279°
2026-04-26 22:37 -33.93722 151.16995 35 ft 3 kts 264°
2026-04-26 22:38 -33.93727 151.16963 35 ft 2 kts 256°
2026-04-26 22:38 -33.93730 151.16950 35 ft 0 kts 256°
2026-04-26 22:38 -33.93731 151.16946 35 ft 0 kts 256°
2026-04-26 22:38 -33.93731 151.16945 35 ft 0 kts 256°
2026-04-26 22:39 -33.93732 151.16942 35 ft 0 kts 256°